Time,TemperatureF,DewpointF,PressureIn,WindDirection,WindDirectionDegrees,WindSpeedMPH,WindSpeedGustMPH,Humidity,HourlyPrecipIn,Conditions,Clouds,dailyrainin,SoftwareType,DateUTC
2013-08-21 00:00:00,76.8,43.9,30.09,West,270,2.9,3.8,31,20.68,,---,0.00,VWS V14.00,2013-08-21 04:00:00,
2013-08-21 00:01:00,76.8,43.9,30.09,WSW,248,2.7,3.4,31,20.68,,---,0.00,VWS V14.00,2013-08-21 04:01:00,
2013-08-21 00:02:00,76.8,43.9,30.06,West,270,0.0,2.7,31,20.68,,---,0.00,VWS V14.00,2013-08-21 04:02:00,
2013-08-21 00:04:00,76.8,43.9,30.06,West,270,3.1,4.0,31,20.68,,---,0.00,VWS V14.00,2013-08-21 04:04:00,
2013-08-21 00:06:00,76.8,43.9,30.06,West,270,0.0,3.4,31,20.68,,---,0.00,VWS V14.00,2013-08-21 04:06:00,
2013-08-21 00:07:00,76.8,43.9,30.06,West,270,1.1,2.2,31,20.68,,---,0.00,VWS V14.00,2013-08-21 04:07:00,
2013-08-21 00:12:00,76.8,43.9,30.06,West,270,3.1,3.8,31,20.68,,---,0.00,VWS V14.00,2013-08-21 04:12:00,
2013-08-21 00:14:00,76.8,43.9,30.06,WSW,248,4.9,4.9,31,20.68,,---,0.00,VWS V14.00,2013-08-21 04:14:00,
2013-08-21 00:15:00,76.8,43.9,30.06,West,270,2.0,4.9,31,20.68,,---,0.00,VWS V14.00,2013-08-21 04:15:00,
2013-08-21 00:17:00,76.8,43.9,30.06,West,270,2.7,3.6,31,20.68,,---,0.00,VWS V14.00,2013-08-21 04:17:00,
2013-08-21 00:18:00,76.8,43.9,30.06,WSW,248,2.7,3.4,31,20.68,,---,0.00,VWS V14.00,2013-08-21 04:18:00,
2013-08-21 00:19:00,76.8,43.9,30.06,West,270,1.3,2.5,31,20.68,,---,0.00,VWS V14.00,2013-08-21 04:19:00,
2013-08-21 00:22:00,76.8,43.9,30.06,WNW,292,2.7,3.4,31,20.68,,---,0.00,VWS V14.00,2013-08-21 04:22:00,
2013-08-21 00:24:00,76.8,43.9,30.06,West,270,2.2,2.7,31,20.68,,---,0.00,VWS V14.00,2013-08-21 04:24:00,
2013-08-21 00:26:00,76.8,43.9,30.06,WNW,292,2.5,4.3,31,20.68,,---,0.00,VWS V14.00,2013-08-21 04:26:00,
2013-08-21 00:28:00,76.8,43.9,30.06,WNW,292,2.9,4.3,31,20.68,,---,0.00,VWS V14.00,2013-08-21 04:28:00,
2013-08-21 00:29:00,76.8,43.9,30.06,WNW,292,2.0,3.1,31,20.68,,---,0.00,VWS V14.00,2013-08-21 04:29:00,
2013-08-21 00:31:00,76.8,43.9,30.06,WSW,248,1.6,2.2,31,20.68,,---,0.00,VWS V14.00,2013-08-21 04:31:00,
2013-08-21 00:32:00,76.8,43.9,30.06,West,270,2.0,2.0,31,20.68,,---,0.00,VWS V14.00,2013-08-21 04:32:00,
2013-08-21 00:33:00,76.8,43.9,30.09,WNW,292,0.0,2.5,31,20.68,,---,0.00,VWS V14.00,2013-08-21 04:33:00,
2013-08-21 00:36:00,76.8,43.9,30.09,WNW,292,2.2,3.8,31,20.68,,---,0.00,VWS V14.00,2013-08-21 04:36:00,
2013-08-21 00:38:00,76.8,43.9,30.09,West,270,2.0,2.9,31,20.68,,---,0.00,VWS V14.00,2013-08-21 04:38:00,
2013-08-21 00:40:00,76.8,43.9,30.09,West,270,2.5,3.4,31,20.68,,---,0.00,VWS V14.00,2013-08-21 04:40:00,
2013-08-21 00:41:00,76.8,43.9,30.09,West,270,2.5,2.5,31,20.68,,---,0.00,VWS V14.00,2013-08-21 04:41:00,
2013-08-21 00:43:00,76.8,43.9,30.09,WSW,248,1.6,3.1,31,20.68,,---,0.00,VWS V14.00,2013-08-21 04:43:00,
2013-08-21 00:47:00,76.8,43.9,30.09,WSW,248,0.0,2.2,31,20.68,,---,0.00,VWS V14.00,2013-08-21 04:47:00,
2013-08-21 00:49:00,76.8,43.9,30.09,West,270,0.0,0.0,31,20.68,,---,0.00,VWS V14.00,2013-08-21 04:49:00,
2013-08-21 00:52:00,76.8,43.9,30.09,West,270,0.0,0.0,31,20.68,,---,0.00,VWS V14.00,2013-08-21 04:52:00,
2013-08-21 00:54:00,76.8,43.9,30.09,West,270,0.0,1.1,31,20.68,,---,0.00,VWS V14.00,2013-08-21 04:54:00,
2013-08-21 00:57:00,76.8,43.9,30.09,West,270,2.0,4.0,31,20.68,,---,0.00,VWS V14.00,2013-08-21 04:57:00,
2013-08-21 01:00:00,76.8,43.9,30.09,WSW,248,2.7,2.7,31,20.68,,---,0.00,VWS V14.00,2013-08-21 05:00:00,
2013-08-21 01:01:00,76.8,43.9,30.09,West,270,1.3,4.0,31,20.68,,---,0.00,VWS V14.00,2013-08-21 05:01:00,
2013-08-21 01:04:00,76.8,43.9,30.09,WNW,292,2.0,3.4,31,20.68,,---,0.00,VWS V14.00,2013-08-21 05:04:00,
2013-08-21 01:06:00,76.8,43.9,30.09,West,270,2.0,3.1,31,20.68,,---,0.00,VWS V14.00,2013-08-21 05:06:00,
2013-08-21 01:07:00,76.8,43.9,30.09,WSW,248,2.9,2.9,31,20.68,,---,0.00,VWS V14.00,2013-08-21 05:07:00,
2013-08-21 01:08:00,76.8,43.9,30.09,WNW,292,2.0,3.1,31,20.68,,---,0.00,VWS V14.00,2013-08-21 05:08:00,
2013-08-21 01:13:00,76.8,43.9,30.09,West,270,3.1,3.1,31,20.68,,---,0.00,VWS V14.00,2013-08-21 05:13:00,
2013-08-21 01:15:00,76.8,43.9,30.09,West,270,3.1,3.4,31,20.68,,---,0.00,VWS V14.00,2013-08-21 05:15:00,
2013-08-21 01:18:00,76.8,43.9,30.09,West,270,2.0,3.1,31,20.68,,---,0.00,VWS V14.00,2013-08-21 05:18:00,
2013-08-21 01:21:00,76.8,43.9,30.09,West,270,2.5,2.9,31,20.68,,---,0.00,VWS V14.00,2013-08-21 05:21:00,
2013-08-21 01:24:00,76.8,43.9,30.09,WSW,248,0.0,0.0,31,20.68,,---,0.00,VWS V14.00,2013-08-21 05:24:00,
2013-08-21 01:25:00,76.8,43.9,30.09,West,270,2.9,3.6,31,20.68,,---,0.00,VWS V14.00,2013-08-21 05:25:00,
2013-08-21 01:26:00,76.8,43.9,30.09,West,270,2.5,3.4,31,20.68,,---,0.00,VWS V14.00,2013-08-21 05:26:00,
2013-08-21 01:28:00,76.8,43.9,30.09,West,270,2.7,3.4,31,20.68,,---,0.00,VWS V14.00,2013-08-21 05:28:00,
2013-08-21 01:29:00,76.8,43.9,30.09,West,270,0.0,2.7,31,20.68,,---,0.00,VWS V14.00,2013-08-21 05:29:00,
2013-08-21 01:32:00,76.8,43.9,30.09,WSW,248,0.0,2.9,31,20.68,,---,0.00,VWS V14.00,2013-08-21 05:32:00,
2013-08-21 01:34:00,76.8,43.9,30.09,NW,315,2.5,2.5,31,20.68,,---,0.00,VWS V14.00,2013-08-21 05:34:00,
2013-08-21 01:36:00,76.8,43.9,30.09,West,270,2.9,2.9,31,20.68,,---,0.00,VWS V14.00,2013-08-21 05:36:00,
2013-08-21 01:42:00,76.8,43.9,30.09,West,270,2.9,2.9,31,20.68,,---,0.00,VWS V14.00,2013-08-21 05:42:00,
2013-08-21 01:43:00,76.8,43.9,30.09,West,270,3.6,4.0,31,20.68,,---,0.00,VWS V14.00,2013-08-21 05:43:00,
2013-08-21 01:46:00,76.8,43.9,30.09,West,270,3.1,3.8,31,20.68,,---,0.00,VWS V14.00,2013-08-21 05:46:00,
2013-08-21 01:50:00,76.8,43.9,30.09,WNW,292,2.7,3.6,31,20.68,,---,0.00,VWS V14.00,2013-08-21 05:50:00,
2013-08-21 01:52:00,76.8,43.9,30.09,West,270,0.0,3.6,31,20.68,,---,0.00,VWS V14.00,2013-08-21 05:52:00,
2013-08-21 01:57:00,76.8,43.9,30.09,WNW,292,0.0,2.2,31,20.68,,---,0.00,VWS V14.00,2013-08-21 05:57:00,
2013-08-21 02:02:00,76.8,43.9,30.09,West,270,0.0,0.0,31,20.68,,---,0.00,VWS V14.00,2013-08-21 06:02:00,
2013-08-21 02:03:00,76.8,43.9,30.09,WNW,292,2.5,2.5,31,20.68,,---,0.00,VWS V14.00,2013-08-21 06:03:00,
2013-08-21 02:04:00,76.8,43.9,30.09,WNW,292,0.0,2.5,31,20.68,,---,0.00,VWS V14.00,2013-08-21 06:04:00,
2013-08-21 02:06:00,76.8,43.9,30.09,WNW,292,1.6,1.6,31,20.68,,---,0.00,VWS V14.00,2013-08-21 06:06:00,
2013-08-21 02:09:00,76.8,43.9,30.09,WSW,248,3.6,3.6,31,20.68,,---,0.00,VWS V14.00,2013-08-21 06:09:00,
2013-08-21 02:11:00,76.8,43.9,30.09,WSW,248,1.3,4.0,31,20.68,,---,0.00,VWS V14.00,2013-08-21 06:11:00,
2013-08-21 02:13:00,76.8,43.9,30.09,WSW,248,0.0,0.0,31,20.68,,---,0.00,VWS V14.00,2013-08-21 06:13:00,
2013-08-21 02:16:00,76.8,43.9,30.09,WSW,248,0.0,2.0,31,20.68,,---,0.00,VWS V14.00,2013-08-21 06:16:00,
2013-08-21 02:17:00,76.8,43.9,30.06,WSW,248,2.5,2.5,31,20.68,,---,0.00,VWS V14.00,2013-08-21 06:17:00,
2013-08-21 02:18:00,76.8,43.9,30.06,West,270,2.7,4.0,31,20.68,,---,0.00,VWS V14.00,2013-08-21 06:18:00,
2013-08-21 02:21:00,76.8,43.9,30.06,West,270,2.5,4.0,31,20.68,,---,0.00,VWS V14.00,2013-08-21 06:21:00,
2013-08-21 02:23:00,76.8,43.9,30.06,WSW,248,2.0,3.6,31,20.68,,---,0.00,VWS V14.00,2013-08-21 06:23:00,
2013-08-21 02:24:00,76.8,43.9,30.06,WSW,248,2.7,2.7,31,20.68,,---,0.00,VWS V14.00,2013-08-21 06:24:00,
2013-08-21 02:25:00,76.8,43.9,30.06,West,270,0.0,2.7,31,20.68,,---,0.00,VWS V14.00,2013-08-21 06:25:00,
2013-08-21 02:28:00,76.8,43.9,30.06,West,270,0.0,2.7,31,20.68,,---,0.00,VWS V14.00,2013-08-21 06:28:00,
2013-08-21 02:31:00,76.8,43.9,30.06,WSW,248,1.3,3.8,31,20.68,,---,0.00,VWS V14.00,2013-08-21 06:31:00,
2013-08-21 02:32:00,76.8,43.9,30.09,West,270,2.0,2.2,31,20.68,,---,0.00,VWS V14.00,2013-08-21 06:32:00,
2013-08-21 02:34:00,76.8,43.9,30.09,West,270,1.6,2.7,31,20.68,,---,0.00,VWS V14.00,2013-08-21 06:34:00,
2013-08-21 02:36:00,76.8,43.9,30.09,West,270,2.7,2.7,31,20.68,,---,0.00,VWS V14.00,2013-08-21 06:36:00,
2013-08-21 02:39:00,76.8,43.9,30.09,West,270,0.0,0.0,31,20.68,,---,0.00,VWS V14.00,2013-08-21 06:39:00,
2013-08-21 02:40:00,76.8,43.9,30.09,West,270,0.0,0.0,31,20.68,,---,0.00,VWS V14.00,2013-08-21 06:40:00,
2013-08-21 02:42:00,76.8,43.9,30.09,WSW,248,0.0,0.0,31,20.68,,---,0.00,VWS V14.00,2013-08-21 06:42:00,
2013-08-21 02:45:00,76.8,43.9,30.09,West,270,0.9,3.6,31,20.68,,---,0.00,VWS V14.00,2013-08-21 06:45:00,
2013-08-21 02:46:00,76.8,43.9,30.09,West,270,1.6,2.5,31,20.68,,---,0.00,VWS V14.00,2013-08-21 06:46:00,
2013-08-21 02:47:00,76.8,43.9,30.09,WSW,248,2.7,2.7,31,20.68,,---,0.00,VWS V14.00,2013-08-21 06:47:00,
2013-08-21 02:49:00,76.8,43.9,30.09,West,270,0.0,1.6,31,20.68,,---,0.00,VWS V14.00,2013-08-21 06:49:00,
2013-08-21 02:50:00,76.8,43.9,30.09,West,270,2.0,2.0,31,20.68,,---,0.00,VWS V14.00,2013-08-21 06:50:00,
2013-08-21 02:51:00,76.8,43.9,30.09,West,270,2.2,4.0,31,20.68,,---,0.00,VWS V14.00,2013-08-21 06:51:00,
2013-08-21 02:53:00,76.8,43.9,30.09,West,270,1.6,2.9,31,20.68,,---,0.00,VWS V14.00,2013-08-21 06:53:00,
2013-08-21 02:54:00,76.8,43.9,30.09,West,270,0.0,1.6,31,20.68,,---,0.00,VWS V14.00,2013-08-21 06:54:00,
2013-08-21 02:56:00,76.8,43.9,30.09,West,270,0.0,0.0,31,20.68,,---,0.00,VWS V14.00,2013-08-21 06:56:00,
2013-08-21 02:57:00,76.8,43.9,30.09,West,270,2.5,2.9,31,20.68,,---,0.00,VWS V14.00,2013-08-21 06:57:00,
2013-08-21 02:59:00,76.8,43.9,30.09,WNW,292,0.0,2.0,31,20.68,,---,0.00,VWS V14.00,2013-08-21 06:59:00,
2013-08-21 03:01:00,76.8,43.9,30.09,West,270,0.0,0.0,31,20.68,,---,0.00,VWS V14.00,2013-08-21 07:01:00,
2013-08-21 03:04:00,76.8,43.9,30.09,WNW,292,0.0,0.0,31,20.68,,---,0.00,VWS V14.00,2013-08-21 07:04:00,
2013-08-21 03:07:00,76.8,43.9,30.09,West,270,0.0,2.2,31,20.68,,---,0.00,VWS V14.00,2013-08-21 07:07:00,
2013-08-21 03:08:00,76.8,43.9,30.09,WNW,292,0.0,2.0,31,20.68,,---,0.00,VWS V14.00,2013-08-21 07:08:00,
2013-08-21 03:12:00,76.8,43.9,30.09,West,270,2.5,2.5,31,20.68,,---,0.00,VWS V14.00,2013-08-21 07:12:00,
2013-08-21 03:13:00,76.8,43.9,30.09,West,270,1.3,2.5,31,20.68,,---,0.00,VWS V14.00,2013-08-21 07:13:00,
2013-08-21 03:14:00,76.8,43.9,30.09,West,270,0.0,1.3,31,20.68,,---,0.00,VWS V14.00,2013-08-21 07:14:00,
2013-08-21 03:18:00,76.8,43.9,30.09,WSW,248,0.0,3.1,31,20.68,,---,0.00,VWS V14.00,2013-08-21 07:18:00,
2013-08-21 03:19:00,76.8,43.9,30.09,West,270,2.7,4.3,31,20.68,,---,0.00,VWS V14.00,2013-08-21 07:19:00,
2013-08-21 03:22:00,76.8,43.9,30.09,West,270,2.5,5.6,31,20.68,,---,0.00,VWS V14.00,2013-08-21 07:22:00,
2013-08-21 03:24:00,76.8,43.9,30.09,WNW,292,2.0,3.1,31,20.68,,---,0.00,VWS V14.00,2013-08-21 07:24:00,
2013-08-21 03:25:00,76.8,43.9,30.09,West,270,2.5,2.5,31,20.68,,---,0.00,VWS V14.00,2013-08-21 07:25:00,
2013-08-21 03:27:00,76.8,43.9,30.09,WNW,292,0.0,3.1,31,20.68,,---,0.00,VWS V14.00,2013-08-21 07:27:00,
2013-08-21 03:28:00,76.8,43.9,30.09,West,270,2.2,2.5,31,20.68,,---,0.00,VWS V14.00,2013-08-21 07:28:00,
2013-08-21 03:33:00,76.8,43.9,30.09,West,270,1.3,2.5,31,20.68,,---,0.00,VWS V14.00,2013-08-21 07:33:00,
2013-08-21 03:34:00,76.8,43.9,30.09,West,270,0.0,1.3,31,20.68,,---,0.00,VWS V14.00,2013-08-21 07:34:00,
2013-08-21 03:35:00,76.8,43.9,30.09,West,270,0.0,0.0,31,20.68,,---,0.00,VWS V14.00,2013-08-21 07:35:00,
2013-08-21 03:36:00,76.8,43.9,30.09,WSW,248,0.0,0.0,31,20.68,,---,0.00,VWS V14.00,2013-08-21 07:36:00,
2013-08-21 03:37:00,76.8,43.9,30.09,WSW,248,2.9,3.6,31,20.68,,---,0.00,VWS V14.00,2013-08-21 07:37:00,
2013-08-21 03:40:00,76.8,43.9,30.09,WSW,248,1.3,1.6,31,20.68,,---,0.00,VWS V14.00,2013-08-21 07:40:00,
2013-08-21 03:41:00,76.8,43.9,30.09,West,270,3.1,4.9,31,20.68,,---,0.00,VWS V14.00,2013-08-21 07:41:00,
2013-08-21 03:44:00,76.8,43.9,30.09,West,270,1.6,2.9,31,20.68,,---,0.00,VWS V14.00,2013-08-21 07:44:00,
2013-08-21 03:45:00,76.8,43.9,30.09,WNW,292,0.0,1.6,31,20.68,,---,0.00,VWS V14.00,2013-08-21 07:45:00,
2013-08-21 03:46:00,76.8,43.9,30.09,WNW,292,0.0,0.0,31,20.68,,---,0.00,VWS V14.00,2013-08-21 07:46:00,
2013-08-21 03:47:00,76.8,43.9,30.09,WSW,248,2.0,4.3,31,20.68,,---,0.00,VWS V14.00,2013-08-21 07:47:00,
2013-08-21 03:48:00,76.8,43.9,30.09,WNW,292,0.0,2.5,31,20.68,,---,0.00,VWS V14.00,2013-08-21 07:48:00,
2013-08-21 03:51:00,76.8,43.9,30.09,West,270,1.3,1.3,31,20.68,,---,0.00,VWS V14.00,2013-08-21 07:51:00,
2013-08-21 03:52:00,76.8,43.9,30.09,West,270,2.2,3.8,31,20.68,,---,0.00,VWS V14.00,2013-08-21 07:52:00,
2013-08-21 03:54:00,76.8,43.9,30.09,West,270,0.0,2.0,31,20.68,,---,0.00,VWS V14.00,2013-08-21 07:54:00,
2013-08-21 03:56:00,76.8,43.9,30.09,WNW,292,2.0,3.4,31,20.68,,---,0.00,VWS V14.00,2013-08-21 07:56:00,
2013-08-21 03:59:00,76.8,43.9,30.09,West,270,2.7,3.4,31,20.68,,---,0.00,VWS V14.00,2013-08-21 07:59:00,
2013-08-21 04:02:00,76.8,43.9,30.09,WNW,292,2.5,2.7,31,20.68,,---,0.00,VWS V14.00,2013-08-21 08:02:00,
2013-08-21 04:04:00,76.8,43.9,30.09,WSW,248,3.8,3.8,31,20.68,,---,0.00,VWS V14.00,2013-08-21 08:04:00,
2013-08-21 04:05:00,76.8,43.9,30.09,WNW,292,2.2,3.8,31,20.68,,---,0.00,VWS V14.00,2013-08-21 08:05:00,
2013-08-21 04:06:00,76.8,43.9,30.09,West,270,2.5,2.9,31,20.68,,---,0.00,VWS V14.00,2013-08-21 08:06:00,
2013-08-21 04:09:00,76.8,43.9,30.09,WSW,248,1.1,2.5,31,20.68,,---,0.00,VWS V14.00,2013-08-21 08:09:00,
2013-08-21 04:11:00,76.8,43.9,30.09,SW,225,3.1,3.1,31,20.68,,---,0.00,VWS V14.00,2013-08-21 08:11:00,
2013-08-21 04:14:00,76.8,43.9,30.09,WSW,248,2.0,2.5,31,20.68,,---,0.00,VWS V14.00,2013-08-21 08:14:00,
2013-08-21 04:18:00,76.8,43.9,30.12,WSW,248,2.5,2.7,31,20.68,,---,0.00,VWS V14.00,2013-08-21 08:18:00,
2013-08-21 04:19:00,76.8,43.9,30.12,West,270,1.6,3.1,31,20.68,,---,0.00,VWS V14.00,2013-08-21 08:19:00,
2013-08-21 04:21:00,76.8,43.9,30.12,WSW,248,3.8,3.8,31,20.68,,---,0.00,VWS V14.00,2013-08-21 08:21:00,
2013-08-21 04:25:00,76.8,43.9,30.12,WSW,248,0.0,0.0,31,20.68,,---,0.00,VWS V14.00,2013-08-21 08:25:00,
2013-08-21 04:26:00,76.8,43.9,30.12,West,270,0.0,0.0,31,20.68,,---,0.00,VWS V14.00,2013-08-21 08:26:00,
2013-08-21 04:30:00,76.8,43.9,30.12,West,270,1.6,3.4,31,20.68,,---,0.00,VWS V14.00,2013-08-21 08:30:00,
2013-08-21 04:31:00,76.8,43.9,30.12,West,270,2.9,3.1,31,20.68,,---,0.00,VWS V14.00,2013-08-21 08:31:00,
2013-08-21 04:32:00,76.8,43.9,30.12,West,270,2.0,2.9,31,20.68,,---,0.00,VWS V14.00,2013-08-21 08:32:00,
2013-08-21 04:34:00,76.8,43.9,30.12,West,270,0.0,2.7,31,20.68,,---,0.00,VWS V14.00,2013-08-21 08:34:00,
2013-08-21 04:35:00,76.8,43.9,30.12,West,270,0.0,2.2,31,20.68,,---,0.00,VWS V14.00,2013-08-21 08:35:00,
2013-08-21 04:36:00,76.8,43.9,30.12,WNW,292,3.6,3.6,31,20.68,,---,0.00,VWS V14.00,2013-08-21 08:36:00,
2013-08-21 04:37:00,76.8,43.9,30.12,West,270,2.5,3.6,31,20.68,,---,0.00,VWS V14.00,2013-08-21 08:37:00,
2013-08-21 04:40:00,76.8,43.9,30.12,West,270,2.5,3.6,31,20.68,,---,0.00,VWS V14.00,2013-08-21 08:40:00,
2013-08-21 04:44:00,76.8,43.9,30.12,WSW,248,3.4,3.4,31,20.68,,---,0.00,VWS V14.00,2013-08-21 08:44:00,
2013-08-21 04:45:00,76.8,43.9,30.12,West,270,0.0,4.9,31,20.68,,---,0.00,VWS V14.00,2013-08-21 08:45:00,
2013-08-21 04:47:00,76.8,43.9,30.12,WSW,248,3.4,3.4,31,20.68,,---,0.00,VWS V14.00,2013-08-21 08:47:00,
2013-08-21 04:50:00,76.8,43.9,30.12,WNW,292,2.2,3.4,31,20.68,,---,0.00,VWS V14.00,2013-08-21 08:50:00,
2013-08-21 04:53:00,76.8,43.9,30.12,WSW,248,1.6,2.7,31,20.68,,---,0.00,VWS V14.00,2013-08-21 08:53:00,
2013-08-21 04:55:00,76.8,43.9,30.12,West,270,1.1,1.6,31,20.68,,---,0.00,VWS V14.00,2013-08-21 08:55:00,
2013-08-21 04:58:00,76.8,43.9,30.12,West,270,2.5,2.5,31,20.68,,---,0.00,VWS V14.00,2013-08-21 08:58:00,
2013-08-21 04:59:00,76.8,43.9,30.12,WNW,292,3.6,3.8,31,20.68,,---,0.00,VWS V14.00,2013-08-21 08:59:00,
2013-08-21 05:01:00,76.8,43.9,30.12,West,270,4.0,4.7,31,20.68,,---,0.00,VWS V14.00,2013-08-21 09:01:00,
2013-08-21 05:03:00,76.8,43.9,30.09,West,270,2.0,2.9,31,20.68,,---,0.00,VWS V14.00,2013-08-21 09:03:00,
2013-08-21 05:04:00,76.8,43.9,30.09,WSW,248,2.2,2.2,31,20.68,,---,0.00,VWS V14.00,2013-08-21 09:04:00,
2013-08-21 05:06:00,76.8,43.9,30.09,West,270,3.4,3.4,31,20.68,,---,0.00,VWS V14.00,2013-08-21 09:06:00,
2013-08-21 05:09:00,76.8,43.9,30.09,West,270,2.0,3.1,31,20.68,,---,0.00,VWS V14.00,2013-08-21 09:09:00,
2013-08-21 05:11:00,76.8,43.9,30.09,West,270,0.0,0.0,31,20.68,,---,0.00,VWS V14.00,2013-08-21 09:11:00,
2013-08-21 05:12:00,73.4,-20.0,30.09,West,270,1.3,1.3,2,20.68,,---,0.00,VWS V14.00,2013-08-21 09:12:00,
2013-08-21 05:13:00,73.4,-20.0,30.09,West,270,0.0,2.2,2,20.68,,---,0.00,VWS V14.00,2013-08-21 09:13:00,
2013-08-21 05:16:00,73.4,-20.0,30.09,West,270,2.7,2.9,2,20.68,,---,0.00,VWS V14.00,2013-08-21 09:16:00,
2013-08-21 05:18:00,73.4,-20.0,30.12,West,270,2.7,3.1,2,20.68,,---,0.00,VWS V14.00,2013-08-21 09:18:00,
2013-08-21 05:19:00,73.4,-20.0,30.12,WSW,248,2.5,3.8,2,20.68,,---,0.00,VWS V14.00,2013-08-21 09:19:00,
2013-08-21 05:22:00,73.4,-20.0,30.12,WSW,248,3.1,3.1,2,20.68,,---,0.00,VWS V14.00,2013-08-21 09:22:00,
2013-08-21 05:23:00,73.4,-20.0,30.12,West,270,2.0,3.1,2,20.68,,---,0.00,VWS V14.00,2013-08-21 09:23:00,
2013-08-21 05:25:00,73.4,-20.0,30.12,West,270,0.0,0.0,2,20.68,,---,0.00,VWS V14.00,2013-08-21 09:25:00,
2013-08-21 05:27:00,73.4,-20.0,30.12,WNW,292,5.4,5.4,2,20.68,,---,0.00,VWS V14.00,2013-08-21 09:27:00,
2013-08-21 05:29:00,73.4,-20.0,30.12,WNW,292,3.1,3.1,2,20.68,,---,0.00,VWS V14.00,2013-08-21 09:29:00,
2013-08-21 05:32:00,73.4,-20.0,30.12,West,270,0.0,0.0,2,20.68,,---,0.00,VWS V14.00,2013-08-21 09:32:00,
2013-08-21 05:33:00,73.4,-20.0,30.12,WSW,248,0.0,0.0,2,20.68,,---,0.00,VWS V14.00,2013-08-21 09:33:00,
2013-08-21 05:36:00,73.4,-20.0,30.12,WSW,248,2.0,2.7,2,20.68,,---,0.00,VWS V14.00,2013-08-21 09:36:00,
2013-08-21 05:37:00,73.4,-20.0,30.12,WSW,248,1.1,2.5,2,20.68,,---,0.00,VWS V14.00,2013-08-21 09:37:00,
2013-08-21 05:41:00,73.4,-20.0,30.12,WNW,292,2.5,2.7,2,20.68,,---,0.00,VWS V14.00,2013-08-21 09:41:00,
2013-08-21 05:43:00,73.4,-20.0,30.12,West,270,0.0,0.0,2,20.68,,---,0.00,VWS V14.00,2013-08-21 09:43:00,
2013-08-21 05:44:00,73.4,-20.0,30.12,West,270,2.2,3.1,2,20.68,,---,0.00,VWS V14.00,2013-08-21 09:44:00,
2013-08-21 05:46:00,73.4,-20.0,30.12,WNW,292,1.1,2.2,2,20.68,,---,0.00,VWS V14.00,2013-08-21 09:46:00,
2013-08-21 05:49:00,73.4,-20.0,30.15,West,270,0.0,1.6,2,20.68,,---,0.00,VWS V14.00,2013-08-21 09:49:00,
2013-08-21 05:51:00,73.4,-20.0,30.15,West,270,0.0,2.2,2,20.68,,---,0.00,VWS V14.00,2013-08-21 09:51:00,
2013-08-21 05:54:00,73.4,-20.0,30.15,West,270,0.0,0.0,2,20.68,,---,0.00,VWS V14.00,2013-08-21 09:54:00,
2013-08-21 05:55:00,73.4,-20.0,30.15,WNW,292,2.7,3.8,2,20.68,,---,0.00,VWS V14.00,2013-08-21 09:55:00,
2013-08-21 06:01:00,73.4,-20.0,30.15,West,270,2.2,3.6,2,20.68,,---,0.00,VWS V14.00,2013-08-21 10:01:00,
2013-08-21 06:02:00,73.4,-20.0,30.15,WNW,292,0.0,2.9,2,20.68,,---,0.00,VWS V14.00,2013-08-21 10:02:00,
2013-08-21 06:04:00,73.4,-20.0,30.15,WNW,292,0.0,1.6,2,20.68,,---,0.00,VWS V14.00,2013-08-21 10:04:00,
2013-08-21 06:08:00,73.4,-20.0,30.15,WNW,292,2.0,2.7,2,20.68,,---,0.00,VWS V14.00,2013-08-21 10:08:00,
2013-08-21 06:09:00,73.4,-20.0,30.15,WNW,292,0.0,2.0,2,20.68,,---,0.00,VWS V14.00,2013-08-21 10:09:00,
2013-08-21 06:11:00,73.4,-20.0,30.15,WNW,292,0.0,0.0,2,20.68,,---,0.00,VWS V14.00,2013-08-21 10:11:00,
2013-08-21 06:15:00,73.4,-20.0,30.15,WNW,292,2.2,2.2,2,20.68,,---,0.00,VWS V14.00,2013-08-21 10:15:00,
2013-08-21 06:16:00,73.4,-20.0,30.15,WNW,292,0.0,2.2,2,20.68,,---,0.00,VWS V14.00,2013-08-21 10:16:00,
2013-08-21 06:19:00,73.4,-20.0,30.15,West,270,0.0,0.0,2,20.68,,---,0.00,VWS V14.00,2013-08-21 10:19:00,
2013-08-21 06:23:00,73.4,-20.0,30.15,WNW,292,0.0,1.3,2,20.68,,---,0.00,VWS V14.00,2013-08-21 10:23:00,
2013-08-21 06:25:00,73.4,-20.0,30.15,WSW,248,2.2,4.0,2,20.68,,---,0.00,VWS V14.00,2013-08-21 10:25:00,
2013-08-21 06:28:00,73.4,-20.0,30.15,West,270,0.0,0.0,2,20.68,,---,0.00,VWS V14.00,2013-08-21 10:28:00,
2013-08-21 06:30:00,73.4,-20.0,30.15,WNW,292,0.0,0.0,2,20.68,,---,0.00,VWS V14.00,2013-08-21 10:30:00,
2013-08-21 06:33:00,73.4,-20.0,30.15,West,270,0.0,0.0,2,20.68,,---,0.00,VWS V14.00,2013-08-21 10:33:00,
2013-08-21 06:36:00,73.4,-20.0,30.15,West,270,2.7,4.0,2,20.68,,---,0.00,VWS V14.00,2013-08-21 10:36:00,
2013-08-21 06:37:00,73.4,-20.0,30.15,West,270,1.6,2.7,2,20.68,,---,0.00,VWS V14.00,2013-08-21 10:37:00,
2013-08-21 06:39:00,73.4,-20.0,30.15,West,270,2.5,2.5,2,20.68,,---,0.00,VWS V14.00,2013-08-21 10:39:00,
2013-08-21 06:40:00,73.4,-20.0,30.15,West,270,0.0,2.5,2,20.68,,---,0.00,VWS V14.00,2013-08-21 10:40:00,
2013-08-21 06:42:00,73.4,-20.0,30.15,WNW,292,0.0,1.3,2,20.68,,---,0.00,VWS V14.00,2013-08-21 10:42:00,
2013-08-21 06:44:00,73.4,-20.0,30.15,NNW,338,2.9,2.9,2,20.68,,---,0.00,VWS V14.00,2013-08-21 10:44:00,
2013-08-21 06:46:00,73.4,-20.0,30.15,NW,315,0.0,0.0,2,20.68,,---,0.00,VWS V14.00,2013-08-21 10:46:00,
2013-08-21 06:47:00,73.4,-20.0,30.15,WNW,292,0.0,0.0,2,20.68,,---,0.00,VWS V14.00,2013-08-21 10:47:00,
2013-08-21 06:50:00,73.4,-20.0,30.15,WNW,292,0.0,0.0,2,20.68,,---,0.00,VWS V14.00,2013-08-21 10:50:00,
2013-08-21 06:51:00,73.4,-20.0,30.15,WNW,292,1.1,1.1,2,20.68,,---,0.00,VWS V14.00,2013-08-21 10:51:00,
2013-08-21 06:53:00,73.4,-20.0,30.15,WNW,292,0.0,0.0,2,20.68,,---,0.00,VWS V14.00,2013-08-21 10:53:00,
2013-08-21 06:56:00,73.4,-20.0,30.15,West,270,0.0,0.0,2,20.68,,---,0.00,VWS V14.00,2013-08-21 10:56:00,
2013-08-21 06:57:00,73.4,-20.0,30.15,West,270,0.0,0.0,2,20.68,,---,0.00,VWS V14.00,2013-08-21 10:57:00,
2013-08-21 06:58:00,73.4,-20.0,30.15,WNW,292,0.0,0.0,2,20.68,,---,0.00,VWS V14.00,2013-08-21 10:58:00,
2013-08-21 07:01:00,73.4,-20.0,30.15,WNW,292,0.0,0.0,2,20.68,,---,99.99,VWS V14.00,2013-08-21 11:01:00,
2013-08-21 07:04:00,73.4,-20.0,30.15,WNW,292,0.0,0.0,2,20.68,,---,99.99,VWS V14.00,2013-08-21 11:04:00,
2013-08-21 07:05:00,73.4,-20.0,30.15,WNW,292,0.0,1.3,2,20.68,,---,99.99,VWS V14.00,2013-08-21 11:05:00,
2013-08-21 07:08:00,73.4,-20.0,30.15,WNW,292,0.0,0.0,2,20.68,,---,99.99,VWS V14.00,2013-08-21 11:08:00,
2013-08-21 07:10:00,73.4,-20.0,30.15,WNW,292,0.0,0.0,2,20.68,,---,99.99,VWS V14.00,2013-08-21 11:10:00,
2013-08-21 07:12:00,73.4,-20.0,30.15,WNW,292,0.0,0.0,2,20.68,,---,99.99,VWS V14.00,2013-08-21 11:12:00,
2013-08-21 07:13:00,73.4,-20.0,30.15,WNW,292,0.0,0.0,2,20.68,,---,99.99,VWS V14.00,2013-08-21 11:13:00,
2013-08-21 07:16:00,73.4,-20.0,30.15,NW,315,0.0,0.0,2,20.68,,---,99.99,VWS V14.00,2013-08-21 11:16:00,
2013-08-21 07:19:00,73.4,-20.0,30.15,WNW,292,0.0,0.0,2,20.68,,---,99.99,VWS V14.00,2013-08-21 11:19:00,
2013-08-21 07:21:00,73.4,-20.0,30.15,WNW,292,0.0,0.0,2,20.68,,---,99.99,VWS V14.00,2013-08-21 11:21:00,
2013-08-21 07:22:00,73.4,-20.0,30.15,NNW,338,1.3,1.3,2,20.68,,---,99.99,VWS V14.00,2013-08-21 11:22:00,
2013-08-21 07:26:00,73.4,-20.0,30.15,NW,315,0.0,1.6,2,20.68,,---,99.99,VWS V14.00,2013-08-21 11:26:00,
2013-08-21 07:28:00,73.4,-20.0,30.15,West,270,1.3,1.3,2,20.68,,---,99.99,VWS V14.00,2013-08-21 11:28:00,
2013-08-21 07:29:00,73.4,-20.0,30.15,NW,315,0.0,0.0,2,20.68,,---,99.99,VWS V14.00,2013-08-21 11:29:00,
2013-08-21 07:31:00,73.4,-20.0,30.15,WNW,292,0.0,0.0,2,20.68,,---,99.99,VWS V14.00,2013-08-21 11:31:00,
2013-08-21 07:32:00,73.4,-20.0,30.15,WNW,292,0.0,0.0,2,20.68,,---,99.99,VWS V14.00,2013-08-21 11:32:00,
2013-08-21 07:33:00,73.4,-20.0,30.15,WNW,292,0.0,0.0,2,20.68,,---,99.99,VWS V14.00,2013-08-21 11:33:00,
2013-08-21 07:38:00,73.4,-20.0,30.15,SW,225,0.0,0.0,2,20.68,,---,99.99,VWS V14.00,2013-08-21 11:38:00,
2013-08-21 07:40:00,73.4,-20.0,30.15,West,270,0.0,0.0,2,20.68,,---,99.99,VWS V14.00,2013-08-21 11:40:00,
2013-08-21 07:43:00,73.4,-20.0,30.15,WNW,292,0.0,0.0,2,20.68,,---,99.99,VWS V14.00,2013-08-21 11:43:00,
2013-08-21 07:44:00,73.4,-20.0,30.15,NNW,338,2.5,2.5,2,20.68,,---,99.99,VWS V14.00,2013-08-21 11:44:00,
2013-08-21 07:45:00,73.4,-20.0,30.15,NW,315,0.0,2.5,2,20.68,,---,99.99,VWS V14.00,2013-08-21 11:45:00,
2013-08-21 07:46:00,73.4,-20.0,30.15,WNW,292,2.0,3.1,2,20.68,,---,99.99,VWS V14.00,2013-08-21 11:46:00,
2013-08-21 07:50:00,73.4,-20.0,30.15,WNW,292,0.0,0.0,2,20.68,,---,99.99,VWS V14.00,2013-08-21 11:50:00,
2013-08-21 07:51:00,73.4,-20.0,30.15,WNW,292,0.0,0.0,2,20.68,,---,99.99,VWS V14.00,2013-08-21 11:51:00,
2013-08-21 07:54:00,73.4,-20.0,30.15,WNW,292,2.0,3.4,2,20.68,,---,99.99,VWS V14.00,2013-08-21 11:54:00,
2013-08-21 07:55:00,73.4,-20.0,30.15,WNW,292,0.0,2.7,2,20.68,,---,99.99,VWS V14.00,2013-08-21 11:55:00,
2013-08-21 07:56:00,73.4,-20.0,30.15,WNW,292,1.1,1.1,2,20.68,,---,99.99,VWS V14.00,2013-08-21 11:56:00,
2013-08-21 07:59:00,73.4,-20.0,30.15,WNW,292,0.0,3.6,2,20.68,,---,99.99,VWS V14.00,2013-08-21 11:59:00,
2013-08-21 08:01:00,73.4,-20.0,30.15,WNW,292,0.0,2.5,2,20.68,,---,99.99,VWS V14.00,2013-08-21 12:01:00,
2013-08-21 08:02:00,73.4,-20.0,30.15,WNW,292,0.0,0.0,2,20.68,,---,99.99,VWS V14.00,2013-08-21 12:02:00,
2013-08-21 08:04:00,73.4,-20.0,30.15,WNW,292,0.0,1.1,2,20.68,,---,99.99,VWS V14.00,2013-08-21 12:04:00,
2013-08-21 08:07:00,73.4,-20.0,30.15,WNW,292,2.2,3.1,2,20.68,,---,99.99,VWS V14.00,2013-08-21 12:07:00,
2013-08-21 08:09:00,73.4,-20.0,30.15,WNW,292,0.0,1.3,2,20.68,,---,99.99,VWS V14.00,2013-08-21 12:09:00,
2013-08-21 08:11:00,73.4,-20.0,30.15,WNW,292,0.0,0.0,2,20.68,,---,99.99,VWS V14.00,2013-08-21 12:11:00,
2013-08-21 08:13:00,73.4,-20.0,30.15,NNW,338,0.0,1.6,2,20.68,,---,99.99,VWS V14.00,2013-08-21 12:13:00,
2013-08-21 08:16:00,73.4,-20.0,30.15,West,270,0.0,0.0,2,20.68,,---,99.99,VWS V14.00,2013-08-21 12:16:00,
2013-08-21 08:17:00,73.4,-20.0,30.15,WNW,292,0.0,0.0,2,20.68,,---,99.99,VWS V14.00,2013-08-21 12:17:00,
2013-08-21 08:18:00,73.4,-20.0,30.15,WNW,292,0.0,1.1,2,20.68,,---,99.99,VWS V14.00,2013-08-21 12:18:00,
2013-08-21 08:21:00,73.4,-20.0,30.15,West,270,0.0,0.0,2,20.68,,---,99.99,VWS V14.00,2013-08-21 12:21:00,
2013-08-21 08:22:00,73.4,-20.0,30.15,West,270,2.0,2.0,2,20.68,,---,99.99,VWS V14.00,2013-08-21 12:22:00,
2013-08-21 08:23:00,73.4,-20.0,30.15,WNW,292,1.6,4.0,2,20.68,,---,99.99,VWS V14.00,2013-08-21 12:23:00,
2013-08-21 08:26:00,73.4,-20.0,30.15,East,90,0.0,3.8,2,20.68,,---,99.99,VWS V14.00,2013-08-21 12:26:00,
2013-08-21 08:27:00,73.4,-20.0,30.15,WSW,248,0.0,0.0,2,20.68,,---,99.99,VWS V14.00,2013-08-21 12:27:00,
2013-08-21 08:28:00,73.4,-20.0,30.15,West,270,0.0,2.0,2,20.68,,---,99.99,VWS V14.00,2013-08-21 12:28:00,
2013-08-21 08:30:00,73.4,-20.0,30.15,West,270,2.2,2.7,2,20.68,,---,99.99,VWS V14.00,2013-08-21 12:30:00,
2013-08-21 08:32:00,73.4,-20.0,30.15,NW,315,2.9,2.9,2,20.68,,---,99.99,VWS V14.00,2013-08-21 12:32:00,
2013-08-21 08:34:00,73.4,-20.0,30.15,WNW,292,2.5,3.1,2,20.68,,---,99.99,VWS V14.00,2013-08-21 12:34:00,
2013-08-21 08:35:00,73.4,-20.0,30.15,West,270,2.0,2.7,2,20.68,,---,99.99,VWS V14.00,2013-08-21 12:35:00,
2013-08-21 08:38:00,73.4,-20.0,30.15,NW,315,3.8,3.8,2,20.68,,---,99.99,VWS V14.00,2013-08-21 12:38:00,
2013-08-21 08:39:00,73.4,-20.0,30.15,WNW,292,2.5,3.8,2,20.68,,---,99.99,VWS V14.00,2013-08-21 12:39:00,
2013-08-21 08:41:00,73.4,-20.0,30.15,West,270,0.0,0.0,2,20.68,,---,99.99,VWS V14.00,2013-08-21 12:41:00,
2013-08-21 08:44:00,73.4,-20.0,30.15,NW,315,0.0,1.6,2,20.68,,---,99.99,VWS V14.00,2013-08-21 12:44:00,
2013-08-21 08:45:00,73.4,-20.0,30.15,WNW,292,0.0,0.0,2,20.68,,---,99.99,VWS V14.00,2013-08-21 12:45:00,
2013-08-21 08:49:00,73.4,-20.0,30.15,WNW,292,0.0,4.5,2,20.68,,---,99.99,VWS V14.00,2013-08-21 12:49:00,
2013-08-21 08:50:00,73.4,-20.0,30.15,West,270,2.5,2.5,2,20.68,,---,99.99,VWS V14.00,2013-08-21 12:50:00,
2013-08-21 08:53:00,73.4,-20.0,30.15,SW,225,1.3,2.0,2,20.68,,---,99.99,VWS V14.00,2013-08-21 12:53:00,
2013-08-21 08:54:00,73.4,-20.0,30.15,SW,225,0.0,1.3,2,20.68,,---,99.99,VWS V14.00,2013-08-21 12:54:00,
2013-08-21 08:56:00,73.4,-20.0,30.15,West,270,0.9,2.7,2,20.68,,---,99.99,VWS V14.00,2013-08-21 12:56:00,
2013-08-21 08:59:00,73.4,-20.0,30.15,WNW,292,1.3,1.3,2,20.68,,---,99.99,VWS V14.00,2013-08-21 12:59:00,
2013-08-21 09:01:00,73.4,-20.0,30.15,WSW,248,0.0,0.0,2,20.68,,---,99.99,VWS V14.00,2013-08-21 13:01:00,
2013-08-21 09:02:00,73.4,-20.0,30.12,NW,315,0.0,0.0,2,20.68,,---,99.99,VWS V14.00,2013-08-21 13:02:00,
2013-08-21 09:04:00,73.4,-20.0,30.12,West,270,0.9,4.3,2,20.68,,---,99.99,VWS V14.00,2013-08-21 13:04:00,
2013-08-21 09:06:00,73.4,-20.0,30.12,WNW,292,1.1,3.4,2,20.68,,---,99.99,VWS V14.00,2013-08-21 13:06:00,
2013-08-21 09:09:00,73.4,-20.0,30.12,West,270,0.0,1.6,2,20.68,,---,99.99,VWS V14.00,2013-08-21 13:09:00,
2013-08-21 09:10:00,73.4,-20.0,30.12,WNW,292,0.0,0.0,2,20.68,,---,99.99,VWS V14.00,2013-08-21 13:10:00,
2013-08-21 09:11:00,73.4,-20.0,30.12,NW,315,2.9,2.9,2,20.68,,---,99.99,VWS V14.00,2013-08-21 13:11:00,
2013-08-21 09:13:00,73.4,-20.0,30.12,West,270,0.0,2.7,2,20.68,,---,99.99,VWS V14.00,2013-08-21 13:13:00,
2013-08-21 09:14:00,73.4,-20.0,30.12,WNW,292,0.0,2.2,2,20.68,,---,99.99,VWS V14.00,2013-08-21 13:14:00,
2013-08-21 09:15:00,73.4,-20.0,30.12,WNW,292,1.6,3.1,2,20.68,,---,99.99,VWS V14.00,2013-08-21 13:15:00,
2013-08-21 09:19:00,73.4,-20.0,30.15,WSW,248,0.0,0.0,2,20.68,,---,99.99,VWS V14.00,2013-08-21 13:19:00,
2013-08-21 09:20:00,73.4,-20.0,30.15,NW,315,0.0,0.0,2,20.68,,---,99.99,VWS V14.00,2013-08-21 13:20:00,
2013-08-21 09:24:00,73.4,-20.0,30.15,WNW,292,1.6,1.6,2,20.68,,---,99.99,VWS V14.00,2013-08-21 13:24:00,
2013-08-21 09:26:00,73.4,-20.0,30.15,SW,225,0.0,0.0,2,20.68,,---,99.99,VWS V14.00,2013-08-21 13:26:00,
2013-08-21 09:27:00,73.4,-20.0,30.15,SW,225,0.0,0.0,2,20.68,,---,99.99,VWS V14.00,2013-08-21 13:27:00,
2013-08-21 09:28:00,73.4,-20.0,30.15,North,0,0.0,0.0,2,20.68,,---,99.99,VWS V14.00,2013-08-21 13:28:00,
2013-08-21 09:31:00,73.4,-20.0,30.15,West,270,0.9,0.9,2,20.68,,---,99.99,VWS V14.00,2013-08-21 13:31:00,
2013-08-21 09:32:00,86.4,40.6,30.15,West,270,0.0,3.8,20,20.68,,---,99.99,VWS V14.00,2013-08-21 13:32:00,
2013-08-21 09:33:00,86.4,40.6,30.15,North,0,0.0,0.0,20,20.68,,---,99.99,VWS V14.00,2013-08-21 13:33:00,
2013-08-21 09:36:00,86.4,40.6,30.15,NW,315,2.9,3.6,20,20.68,,---,99.99,VWS V14.00,2013-08-21 13:36:00,
2013-08-21 09:37:00,86.4,40.6,30.15,NW,315,3.1,4.3,20,20.68,,---,99.99,VWS V14.00,2013-08-21 13:37:00,
2013-08-21 09:38:00,86.4,40.6,30.15,West,270,2.7,3.6,20,20.68,,---,99.99,VWS V14.00,2013-08-21 13:38:00,
2013-08-21 09:39:00,86.4,40.6,30.15,West,270,2.7,2.7,20,20.68,,---,99.99,VWS V14.00,2013-08-21 13:39:00,
2013-08-21 09:44:00,86.4,40.6,30.15,WNW,292,0.0,2.0,20,20.68,,---,99.99,VWS V14.00,2013-08-21 13:44:00,
2013-08-21 09:45:00,86.4,40.6,30.15,WNW,292,1.6,1.6,20,20.68,,---,99.99,VWS V14.00,2013-08-21 13:45:00,
2013-08-21 09:46:00,86.4,40.6,30.15,West,270,0.0,1.6,20,20.68,,---,99.99,VWS V14.00,2013-08-21 13:46:00,
2013-08-21 09:48:00,86.4,40.6,30.15,WSW,248,0.0,0.0,20,20.68,,---,99.99,VWS V14.00,2013-08-21 13:48:00,
2013-08-21 09:51:00,86.4,40.6,30.15,NNW,338,2.5,3.8,20,20.68,,---,99.99,VWS V14.00,2013-08-21 13:51:00,
2013-08-21 09:52:00,86.4,40.6,30.15,NW,315,0.0,2.5,20,20.68,,---,99.99,VWS V14.00,2013-08-21 13:52:00,
2013-08-21 09:53:00,86.4,40.6,30.15,West,270,0.0,0.0,20,20.68,,---,99.99,VWS V14.00,2013-08-21 13:53:00,
2013-08-21 09:57:00,86.4,40.6,30.15,North,0,0.0,0.0,20,20.68,,---,99.99,VWS V14.00,2013-08-21 13:57:00,
2013-08-21 09:59:00,86.4,40.6,30.15,NW,315,0.0,0.0,20,20.68,,---,99.99,VWS V14.00,2013-08-21 13:59:00,
2013-08-21 10:01:00,86.4,40.6,30.15,WNW,292,0.0,0.0,20,20.68,,---,99.99,VWS V14.00,2013-08-21 14:01:00,
2013-08-21 10:02:00,86.4,40.6,30.15,NW,315,0.0,0.0,20,20.68,,---,99.99,VWS V14.00,2013-08-21 14:02:00,
2013-08-21 10:03:00,86.4,40.6,30.15,WNW,292,2.7,2.7,20,20.68,,---,99.99,VWS V14.00,2013-08-21 14:03:00,
2013-08-21 10:05:00,86.4,40.6,30.15,West,270,0.0,0.0,20,20.68,,---,99.99,VWS V14.00,2013-08-21 14:05:00,
2013-08-21 10:06:00,86.4,40.6,30.15,NNW,338,3.1,3.8,20,20.68,,---,99.99,VWS V14.00,2013-08-21 14:06:00,
2013-08-21 10:08:00,86.4,40.6,30.15,NW,315,3.6,3.6,20,20.68,,---,99.99,VWS V14.00,2013-08-21 14:08:00,
2013-08-21 10:09:00,86.4,40.6,30.15,West,270,0.9,3.6,20,20.68,,---,99.99,VWS V14.00,2013-08-21 14:09:00,
2013-08-21 10:11:00,86.4,40.6,30.15,West,270,0.0,0.0,20,20.68,,---,99.99,VWS V14.00,2013-08-21 14:11:00,
2013-08-21 10:13:00,86.4,40.6,30.15,NNW,338,2.5,4.0,20,20.68,,---,99.99,VWS V14.00,2013-08-21 14:13:00,
2013-08-21 10:15:00,86.4,40.6,30.15,NNW,338,3.4,4.3,20,20.68,,---,99.99,VWS V14.00,2013-08-21 14:15:00,
2013-08-21 10:17:00,86.4,40.6,30.15,WNW,292,4.0,4.0,20,20.68,,---,99.99,VWS V14.00,2013-08-21 14:17:00,
2013-08-21 10:21:00,86.4,40.6,30.15,WNW,292,0.0,2.0,20,20.68,,---,99.99,VWS V14.00,2013-08-21 14:21:00,
2013-08-21 10:22:00,86.4,40.6,30.15,NW,315,0.0,0.0,20,20.68,,---,99.99,VWS V14.00,2013-08-21 14:22:00,
2013-08-21 10:25:00,86.4,40.6,30.15,SW,225,0.0,0.0,20,20.68,,---,99.99,VWS V14.00,2013-08-21 14:25:00,
2013-08-21 10:26:00,86.4,40.6,30.15,SW,225,0.0,0.0,20,20.68,,---,99.99,VWS V14.00,2013-08-21 14:26:00,
2013-08-21 10:28:00,86.4,40.6,30.15,West,270,3.1,3.1,20,20.68,,---,99.99,VWS V14.00,2013-08-21 14:28:00,
2013-08-21 10:29:00,86.4,40.6,30.15,West,270,2.0,3.1,20,20.68,,---,99.99,VWS V14.00,2013-08-21 14:29:00,
2013-08-21 10:32:00,86.4,40.6,30.12,NNW,338,0.0,0.0,20,20.68,,---,99.99,VWS V14.00,2013-08-21 14:32:00,
2013-08-21 10:33:00,86.4,40.6,30.12,WNW,292,3.4,3.4,20,20.68,,---,99.99,VWS V14.00,2013-08-21 14:33:00,
2013-08-21 10:34:00,86.4,40.6,30.12,NNW,338,3.8,3.8,20,20.68,,---,99.99,VWS V14.00,2013-08-21 14:34:00,
2013-08-21 10:35:00,86.4,40.6,30.12,NW,315,0.0,4.7,20,20.68,,---,99.99,VWS V14.00,2013-08-21 14:35:00,
2013-08-21 10:39:00,86.4,40.6,30.12,WNW,292,0.0,2.7,20,20.68,,---,99.99,VWS V14.00,2013-08-21 14:39:00,
2013-08-21 10:40:00,86.4,40.6,30.12,NNW,338,0.0,0.0,20,20.68,,---,99.99,VWS V14.00,2013-08-21 14:40:00,
2013-08-21 10:41:00,86.4,40.6,30.12,NW,315,2.5,2.5,20,20.68,,---,99.99,VWS V14.00,2013-08-21 14:41:00,
2013-08-21 10:43:00,86.4,40.6,30.12,NNW,338,3.6,4.3,20,20.68,,---,99.99,VWS V14.00,2013-08-21 14:43:00,
2013-08-21 10:44:00,86.4,40.6,30.12,NW,315,1.6,3.8,20,20.68,,---,99.99,VWS V14.00,2013-08-21 14:44:00,
2013-08-21 10:45:00,86.4,40.6,30.12,North,0,1.3,1.6,20,20.68,,---,99.99,VWS V14.00,2013-08-21 14:45:00,
2013-08-21 10:47:00,86.4,40.6,30.15,NW,315,0.0,0.0,20,20.68,,---,99.99,VWS V14.00,2013-08-21 14:47:00,
2013-08-21 10:48:00,86.4,40.6,30.15,SSW,202,0.0,0.0,20,20.68,,---,99.99,VWS V14.00,2013-08-21 14:48:00,
2013-08-21 10:50:00,86.4,40.6,30.15,NE,45,1.6,3.6,20,20.68,,---,99.99,VWS V14.00,2013-08-21 14:50:00,
2013-08-21 10:53:00,86.4,40.6,30.15,NW,315,3.1,3.4,20,20.68,,---,99.99,VWS V14.00,2013-08-21 14:53:00,
2013-08-21 10:55:00,86.4,40.6,30.15,NNW,338,2.7,3.1,20,20.68,,---,99.99,VWS V14.00,2013-08-21 14:55:00,
2013-08-21 10:58:00,86.4,40.6,30.15,North,0,3.4,3.4,20,20.68,,---,99.99,VWS V14.00,2013-08-21 14:58:00,
2013-08-21 10:59:00,86.4,40.6,30.15,NNW,338,2.0,4.0,20,20.68,,---,99.99,VWS V14.00,2013-08-21 14:59:00,
2013-08-21 11:01:00,86.4,40.6,30.15,NNW,338,2.7,3.4,20,20.68,,---,99.99,VWS V14.00,2013-08-21 15:01:00,
2013-08-21 11:02:00,86.4,40.6,30.15,North,0,3.4,3.4,20,20.68,,---,99.99,VWS V14.00,2013-08-21 15:02:00,
2013-08-21 11:04:00,86.4,40.6,30.15,NW,315,0.0,3.1,20,20.68,,---,99.99,VWS V14.00,2013-08-21 15:04:00,
2013-08-21 11:06:00,86.4,40.6,30.15,NNW,338,3.1,3.1,20,20.68,,---,99.99,VWS V14.00,2013-08-21 15:06:00,
2013-08-21 11:07:00,86.4,40.6,30.15,NW,315,2.5,3.1,20,20.68,,---,99.99,VWS V14.00,2013-08-21 15:07:00,
2013-08-21 11:09:00,86.4,40.6,30.15,NNW,338,3.6,3.6,20,20.68,,---,99.99,VWS V14.00,2013-08-21 15:09:00,
2013-08-21 11:10:00,86.4,40.6,30.15,WSW,248,2.9,3.6,20,20.68,,---,99.99,VWS V14.00,2013-08-21 15:10:00,
2013-08-21 11:12:00,86.4,40.6,30.15,NW,315,0.0,2.5,20,20.68,,---,99.99,VWS V14.00,2013-08-21 15:12:00,
2013-08-21 11:13:00,95.0,41.8,30.15,WSW,248,0.0,0.0,16,20.68,,---,99.99,VWS V14.00,2013-08-21 15:13:00,
2013-08-21 11:15:00,95.0,41.8,30.15,South,180,2.5,2.7,16,20.68,,---,99.99,VWS V14.00,2013-08-21 15:15:00,
2013-08-21 11:16:00,95.0,41.8,30.15,WNW,292,3.4,3.4,16,20.68,,---,99.99,VWS V14.00,2013-08-21 15:16:00,
2013-08-21 11:20:00,96.1,42.7,30.15,SSW,202,3.4,3.4,16,20.68,,---,99.99,VWS V14.00,2013-08-21 15:20:00,
2013-08-21 11:21:00,96.1,42.7,30.15,WNW,292,2.9,3.8,16,20.68,,---,99.99,VWS V14.00,2013-08-21 15:21:00,
2013-08-21 11:22:00,96.4,39.5,30.15,NW,315,0.0,4.0,14,20.68,,---,99.99,VWS V14.00,2013-08-21 15:22:00,
2013-08-21 11:23:00,96.4,39.5,30.15,NNE,22,2.7,2.7,14,20.68,,---,99.99,VWS V14.00,2013-08-21 15:23:00,
2013-08-21 11:25:00,95.7,39.0,30.15,WSW,248,2.5,4.9,14,20.68,,---,99.99,VWS V14.00,2013-08-21 15:25:00,
2013-08-21 11:26:00,95.7,39.0,30.15,WSW,248,2.0,3.8,14,20.68,,---,99.99,VWS V14.00,2013-08-21 15:26:00,
2013-08-21 11:27:00,95.2,38.5,30.15,West,270,3.8,4.7,14,20.68,,---,99.99,VWS V14.00,2013-08-21 15:27:00,
2013-08-21 11:28:00,95.5,38.8,30.15,WNW,292,3.1,4.7,14,20.68,,---,99.99,VWS V14.00,2013-08-21 15:28:00,
2013-08-21 11:30:00,96.1,39.2,30.15,West,270,2.7,3.1,14,20.68,,---,99.99,VWS V14.00,2013-08-21 15:30:00,
2013-08-21 11:32:00,97.2,38.2,30.15,WNW,292,3.8,6.5,13,20.68,,---,99.99,VWS V14.00,2013-08-21 15:32:00,
2013-08-21 11:33:00,97.2,38.2,30.15,WSW,248,2.9,3.8,13,20.68,,---,99.99,VWS V14.00,2013-08-21 15:33:00,
2013-08-21 11:35:00,97.2,38.2,30.15,WSW,248,3.6,7.2,13,20.68,,---,99.99,VWS V14.00,2013-08-21 15:35:00,
2013-08-21 11:37:00,97.2,38.2,30.15,SW,225,4.7,5.4,13,20.68,,---,99.99,VWS V14.00,2013-08-21 15:37:00,
2013-08-21 11:40:00,96.1,39.2,30.15,West,270,5.4,5.4,14,20.68,,---,99.99,VWS V14.00,2013-08-21 15:40:00,
2013-08-21 11:43:00,96.1,39.2,30.15,NNW,338,0.0,1.3,14,20.68,,---,99.99,VWS V14.00,2013-08-21 15:43:00,
2013-08-21 11:45:00,96.1,39.2,30.15,NW,315,2.2,5.6,14,20.68,,---,99.99,VWS V14.00,2013-08-21 15:45:00,
2013-08-21 11:47:00,96.1,39.2,30.15,West,270,3.1,3.8,14,20.68,,---,99.99,VWS V14.00,2013-08-21 15:47:00,
2013-08-21 11:48:00,97.9,38.8,30.15,West,270,1.6,4.7,13,20.68,,---,99.99,VWS V14.00,2013-08-21 15:48:00,
2013-08-21 11:51:00,97.9,38.8,30.15,NNW,338,3.8,3.8,13,20.68,,---,99.99,VWS V14.00,2013-08-21 15:51:00,
2013-08-21 11:52:00,97.7,38.6,30.15,West,270,5.4,5.4,13,20.68,,---,99.99,VWS V14.00,2013-08-21 15:52:00,
2013-08-21 11:53:00,97.7,38.6,30.15,NW,315,4.0,5.4,13,20.68,,---,99.99,VWS V14.00,2013-08-21 15:53:00,
2013-08-21 11:55:00,97.0,38.0,30.15,SW,225,0.9,3.8,13,20.68,,---,99.99,VWS V14.00,2013-08-21 15:55:00,
2013-08-21 11:56:00,97.3,38.3,30.15,WSW,248,2.7,2.7,13,20.68,,---,99.99,VWS V14.00,2013-08-21 15:56:00,
2013-08-21 11:59:00,97.3,38.3,30.15,West,270,2.0,2.0,13,20.68,,---,99.99,VWS V14.00,2013-08-21 15:59:00,
2013-08-21 12:02:00,97.7,38.6,30.15,East,90,2.2,6.0,13,20.68,,---,99.99,VWS V14.00,2013-08-21 16:02:00,
2013-08-21 12:04:00,97.5,38.5,30.15,North,0,0.9,0.9,13,20.68,,---,99.99,VWS V14.00,2013-08-21 16:04:00,
2013-08-21 12:06:00,97.5,38.5,30.15,WNW,292,2.7,3.4,13,20.68,,---,99.99,VWS V14.00,2013-08-21 16:06:00,
2013-08-21 12:08:00,97.5,38.5,30.15,West,270,2.5,4.0,13,20.68,,---,99.99,VWS V14.00,2013-08-21 16:08:00,
2013-08-21 12:11:00,97.3,38.3,30.15,NNW,338,1.1,3.1,13,20.68,,---,99.99,VWS V14.00,2013-08-21 16:11:00,
2013-08-21 12:13:00,96.6,39.7,30.15,NW,315,1.1,2.5,14,20.68,,---,99.99,VWS V14.00,2013-08-21 16:13:00,
2013-08-21 12:14:00,96.1,39.2,30.15,ESE,112,0.0,3.1,14,20.68,,---,99.99,VWS V14.00,2013-08-21 16:14:00,
2013-08-21 12:17:00,95.4,38.7,30.15,West,270,2.9,3.1,14,20.68,,---,99.99,VWS V14.00,2013-08-21 16:17:00,
2013-08-21 12:18:00,95.4,38.7,30.15,WNW,292,5.8,5.8,14,20.68,,---,99.99,VWS V14.00,2013-08-21 16:18:00,
2013-08-21 12:19:00,95.2,38.5,30.15,WNW,292,4.3,6.3,14,20.68,,---,99.99,VWS V14.00,2013-08-21 16:19:00,
2013-08-21 12:21:00,95.2,38.5,30.15,West,270,1.6,4.3,14,20.68,,---,99.99,VWS V14.00,2013-08-21 16:21:00,
2013-08-21 12:22:00,95.2,38.5,30.15,WNW,292,2.7,2.7,14,20.68,,---,99.99,VWS V14.00,2013-08-21 16:22:00,
2013-08-21 12:25:00,95.2,38.5,30.15,WNW,292,2.7,2.7,14,20.68,,---,99.99,VWS V14.00,2013-08-21 16:25:00,
2013-08-21 12:26:00,95.2,38.5,30.15,NW,315,0.0,2.9,14,20.68,,---,99.99,VWS V14.00,2013-08-21 16:26:00,
2013-08-21 12:27:00,95.2,38.5,30.15,West,270,2.7,2.7,14,20.68,,---,99.99,VWS V14.00,2013-08-21 16:27:00,
2013-08-21 12:28:00,95.2,38.5,30.15,WSW,248,7.2,7.2,14,20.68,,---,99.99,VWS V14.00,2013-08-21 16:28:00,
2013-08-21 12:30:00,95.2,38.5,30.15,WNW,292,0.0,3.8,14,20.68,,---,99.99,VWS V14.00,2013-08-21 16:30:00,
2013-08-21 12:33:00,95.2,38.5,30.12,WSW,248,0.9,2.0,14,20.68,,---,99.99,VWS V14.00,2013-08-21 16:33:00,
2013-08-21 12:35:00,95.2,38.5,30.12,SW,225,0.0,0.0,14,20.68,,---,99.99,VWS V14.00,2013-08-21 16:35:00,
2013-08-21 12:36:00,95.2,38.5,30.12,SSW,202,2.0,2.7,14,20.68,,---,99.99,VWS V14.00,2013-08-21 16:36:00,
2013-08-21 12:37:00,95.2,38.5,30.12,SSW,202,1.1,2.0,14,20.68,,---,99.99,VWS V14.00,2013-08-21 16:37:00,
2013-08-21 12:40:00,95.2,38.5,30.12,WSW,248,0.0,1.1,14,20.68,,---,99.99,VWS V14.00,2013-08-21 16:40:00,
2013-08-21 12:42:00,95.2,38.5,30.12,SSW,202,3.6,3.6,14,20.68,,---,99.99,VWS V14.00,2013-08-21 16:42:00,
2013-08-21 12:43:00,95.2,38.5,30.12,South,180,1.6,3.6,14,20.68,,---,99.99,VWS V14.00,2013-08-21 16:43:00,
2013-08-21 12:45:00,95.2,38.5,30.12,WNW,292,1.3,3.1,14,20.68,,---,99.99,VWS V14.00,2013-08-21 16:45:00,
2013-08-21 12:48:00,95.2,38.5,30.12,NNE,22,3.8,3.8,14,20.68,,---,99.99,VWS V14.00,2013-08-21 16:48:00,
2013-08-21 12:49:00,95.2,38.5,30.12,ENE,68,2.5,3.8,14,20.68,,---,99.99,VWS V14.00,2013-08-21 16:49:00,
2013-08-21 12:50:00,95.2,38.5,30.12,NNE,22,0.0,2.5,14,20.68,,---,99.99,VWS V14.00,2013-08-21 16:50:00,
2013-08-21 12:54:00,95.2,38.5,30.12,WNW,292,2.0,2.2,14,20.68,,---,99.99,VWS V14.00,2013-08-21 16:54:00,
2013-08-21 12:56:00,95.2,38.5,30.12,NNE,22,0.0,3.1,14,20.68,,---,99.99,VWS V14.00,2013-08-21 16:56:00,
2013-08-21 12:58:00,95.2,38.5,30.12,NW,315,0.0,2.7,14,20.68,,---,99.99,VWS V14.00,2013-08-21 16:58:00,
2013-08-21 12:59:00,95.2,38.5,30.12,NNW,338,2.5,3.1,14,20.68,,---,99.99,VWS V14.00,2013-08-21 16:59:00,
2013-08-21 13:02:00,95.2,38.5,30.12,NW,315,0.9,3.1,14,20.68,,---,99.99,VWS V14.00,2013-08-21 17:02:00,
2013-08-21 13:03:00,95.2,38.5,30.12,NE,45,0.0,1.6,14,20.68,,---,99.99,VWS V14.00,2013-08-21 17:03:00,
2013-08-21 13:05:00,95.2,38.5,30.12,ESE,112,3.1,3.8,14,20.68,,---,99.99,VWS V14.00,2013-08-21 17:05:00,
2013-08-21 13:06:00,95.2,38.5,30.12,East,90,3.1,3.4,14,20.68,,---,99.99,VWS V14.00,2013-08-21 17:06:00,
2013-08-21 13:10:00,95.2,38.5,30.12,South,180,0.0,2.7,14,20.68,,---,99.99,VWS V14.00,2013-08-21 17:10:00,
2013-08-21 13:11:00,95.2,38.5,30.12,South,180,2.7,3.8,14,20.68,,---,99.99,VWS V14.00,2013-08-21 17:11:00,
2013-08-21 13:13:00,95.2,38.5,30.12,South,180,3.8,3.8,14,20.68,,---,99.99,VWS V14.00,2013-08-21 17:13:00,
2013-08-21 13:14:00,95.2,38.5,30.12,SSW,202,3.1,3.8,14,20.68,,---,99.99,VWS V14.00,2013-08-21 17:14:00,
2013-08-21 13:17:00,95.2,38.5,30.15,South,180,0.9,2.7,14,20.68,,---,99.99,VWS V14.00,2013-08-21 17:17:00,
2013-08-21 13:19:00,95.2,38.5,30.15,SE,135,3.6,3.6,14,20.68,,---,99.99,VWS V14.00,2013-08-21 17:19:00,
2013-08-21 13:20:00,95.2,38.5,30.15,ESE,112,4.0,4.0,14,20.68,,---,99.99,VWS V14.00,2013-08-21 17:20:00,
2013-08-21 13:24:00,95.2,38.5,30.15,SSE,158,2.0,3.1,14,20.68,,---,99.99,VWS V14.00,2013-08-21 17:24:00,
2013-08-21 13:25:00,95.2,38.5,30.15,SSE,158,4.3,4.3,14,20.68,,---,99.99,VWS V14.00,2013-08-21 17:25:00,
2013-08-21 13:27:00,95.2,38.5,30.15,SE,135,3.1,3.1,14,20.68,,---,99.99,VWS V14.00,2013-08-21 17:27:00,
2013-08-21 13:28:00,95.2,38.5,30.15,SSE,158,1.1,3.4,14,20.68,,---,99.99,VWS V14.00,2013-08-21 17:28:00,
2013-08-21 13:29:00,95.2,38.5,30.15,SSE,158,4.0,4.0,14,20.68,,---,99.99,VWS V14.00,2013-08-21 17:29:00,
2013-08-21 13:31:00,95.2,38.5,30.15,ESE,112,2.0,2.0,14,20.68,,---,99.99,VWS V14.00,2013-08-21 17:31:00,
2013-08-21 13:35:00,95.2,38.5,30.15,SSE,158,3.4,3.4,14,20.68,,---,99.99,VWS V14.00,2013-08-21 17:35:00,
2013-08-21 13:36:00,95.2,38.5,30.15,South,180,0.9,3.4,14,20.68,,---,99.99,VWS V14.00,2013-08-21 17:36:00,
2013-08-21 13:37:00,95.2,38.5,30.15,SW,225,0.0,2.9,14,20.68,,---,99.99,VWS V14.00,2013-08-21 17:37:00,
2013-08-21 13:40:00,95.2,38.5,30.15,SSW,202,3.1,3.6,14,20.68,,---,99.99,VWS V14.00,2013-08-21 17:40:00,
2013-08-21 13:41:00,90.5,39.8,30.15,SSW,202,4.0,6.3,17,20.68,,---,99.99,VWS V14.00,2013-08-21 17:41:00,
2013-08-21 13:43:00,90.5,39.8,30.15,SE,135,2.9,4.0,17,20.68,,---,99.99,VWS V14.00,2013-08-21 17:43:00,
2013-08-21 13:44:00,90.5,39.8,30.15,SSE,158,2.7,4.0,17,20.68,,---,99.99,VWS V14.00,2013-08-21 17:44:00,
2013-08-21 13:46:00,90.5,39.8,30.15,South,180,4.9,4.9,17,20.68,,---,99.99,VWS V14.00,2013-08-21 17:46:00,
2013-08-21 13:48:00,90.5,39.8,30.12,SSW,202,4.3,4.3,17,20.68,,---,99.99,VWS V14.00,2013-08-21 17:48:00,
2013-08-21 13:49:00,90.5,39.8,30.12,South,180,2.0,4.3,17,20.68,,---,99.99,VWS V14.00,2013-08-21 17:49:00,
2013-08-21 13:51:00,90.5,39.8,30.12,SE,135,3.1,4.3,17,20.68,,---,99.99,VWS V14.00,2013-08-21 17:51:00,
2013-08-21 13:52:00,90.5,39.8,30.12,SSE,158,8.1,8.1,17,20.68,,---,99.99,VWS V14.00,2013-08-21 17:52:00,
2013-08-21 13:53:00,90.5,39.8,30.12,SSW,202,3.4,8.1,17,20.68,,---,99.99,VWS V14.00,2013-08-21 17:53:00,
2013-08-21 13:54:00,90.5,39.8,30.12,SSE,158,4.7,4.7,17,20.68,,---,99.99,VWS V14.00,2013-08-21 17:54:00,
2013-08-21 13:56:00,90.5,39.8,30.12,South,180,2.2,2.7,17,20.68,,---,99.99,VWS V14.00,2013-08-21 17:56:00,
2013-08-21 13:57:00,90.5,39.8,30.12,South,180,3.1,3.8,17,20.68,,---,99.99,VWS V14.00,2013-08-21 17:57:00,
2013-08-21 13:58:00,90.5,39.8,30.12,SSE,158,0.0,3.8,17,20.68,,---,99.99,VWS V14.00,2013-08-21 17:58:00,
2013-08-21 14:01:00,90.5,39.8,30.12,SSE,158,1.6,3.4,17,20.68,,---,99.99,VWS V14.00,2013-08-21 18:01:00,
2013-08-21 14:02:00,90.5,39.8,30.09,SSW,202,0.9,2.0,17,20.68,,---,99.99,VWS V14.00,2013-08-21 18:02:00,
2013-08-21 14:03:00,90.5,39.8,30.09,SSW,202,2.0,2.0,17,20.68,,---,99.99,VWS V14.00,2013-08-21 18:03:00,
2013-08-21 14:05:00,90.5,39.8,30.09,SSW,202,2.9,3.6,17,20.68,,---,99.99,VWS V14.00,2013-08-21 18:05:00,
2013-08-21 14:06:00,90.5,39.8,30.09,WSW,248,2.2,3.8,17,20.68,,---,99.99,VWS V14.00,2013-08-21 18:06:00,
2013-08-21 14:07:00,90.5,39.8,30.09,SSW,202,3.6,3.6,17,20.68,,---,99.99,VWS V14.00,2013-08-21 18:07:00,
2013-08-21 14:09:00,90.5,39.8,30.09,ESE,112,2.7,4.7,17,20.68,,---,99.99,VWS V14.00,2013-08-21 18:09:00,
2013-08-21 14:13:00,90.5,39.8,30.09,South,180,0.0,4.0,17,20.68,,---,99.99,VWS V14.00,2013-08-21 18:13:00,
2013-08-21 14:14:00,90.5,39.8,30.09,SSW,202,2.5,5.4,17,20.68,,---,99.99,VWS V14.00,2013-08-21 18:14:00,
2013-08-21 14:18:00,89.2,40.2,30.09,SSE,158,3.8,5.4,18,20.68,,---,99.99,VWS V14.00,2013-08-21 18:18:00,
2013-08-21 14:19:00,89.2,40.2,30.09,East,90,3.4,3.8,18,20.68,,---,99.99,VWS V14.00,2013-08-21 18:19:00,
2013-08-21 14:21:00,89.2,40.2,30.09,SSE,158,3.6,4.9,18,20.68,,---,99.99,VWS V14.00,2013-08-21 18:21:00,
2013-08-21 14:23:00,89.2,40.2,30.09,South,180,2.9,5.8,18,20.68,,---,99.99,VWS V14.00,2013-08-21 18:23:00,
2013-08-21 14:25:00,89.2,40.2,30.09,SSE,158,2.2,4.0,18,20.68,,---,99.99,VWS V14.00,2013-08-21 18:25:00,
2013-08-21 14:27:00,89.2,40.2,30.09,SSE,158,1.1,2.7,18,20.68,,---,99.99,VWS V14.00,2013-08-21 18:27:00,
2013-08-21 14:28:00,89.2,40.2,30.09,SSE,158,2.0,2.0,18,20.68,,---,99.99,VWS V14.00,2013-08-21 18:28:00,
2013-08-21 14:31:00,89.2,40.2,30.09,SSE,158,4.7,4.9,18,20.68,,---,99.99,VWS V14.00,2013-08-21 18:31:00,
2013-08-21 14:32:00,89.2,40.2,30.09,NW,315,3.6,4.7,18,20.68,,---,99.99,VWS V14.00,2013-08-21 18:32:00,
2013-08-21 14:33:00,89.2,40.2,30.09,South,180,1.1,3.8,18,20.68,,---,99.99,VWS V14.00,2013-08-21 18:33:00,
2013-08-21 14:36:00,89.2,40.2,30.09,WSW,248,2.9,4.3,18,20.68,,---,99.99,VWS V14.00,2013-08-21 18:36:00,
2013-08-21 14:37:00,89.2,40.2,30.09,SSW,202,3.8,3.8,18,20.68,,---,99.99,VWS V14.00,2013-08-21 18:37:00,
2013-08-21 14:38:00,89.2,40.2,30.09,SSW,202,3.8,3.8,18,20.68,,---,99.99,VWS V14.00,2013-08-21 18:38:00,
2013-08-21 14:40:00,89.2,40.2,30.09,South,180,3.6,3.6,18,20.68,,---,99.99,VWS V14.00,2013-08-21 18:40:00,
2013-08-21 14:42:00,89.2,40.2,30.09,South,180,1.3,3.1,18,20.68,,---,99.99,VWS V14.00,2013-08-21 18:42:00,
2013-08-21 14:43:00,89.2,40.2,30.09,WNW,292,2.9,3.6,18,20.68,,---,99.99,VWS V14.00,2013-08-21 18:43:00,
2013-08-21 14:45:00,89.2,40.2,30.09,SSE,158,3.8,4.9,18,20.68,,---,99.99,VWS V14.00,2013-08-21 18:45:00,
2013-08-21 14:47:00,89.2,40.2,30.09,South,180,4.0,5.6,18,20.68,,---,99.99,VWS V14.00,2013-08-21 18:47:00,
2013-08-21 14:48:00,89.2,40.2,30.09,SSW,202,3.6,4.3,18,20.68,,---,99.99,VWS V14.00,2013-08-21 18:48:00,
2013-08-21 14:51:00,89.2,40.2,30.09,SSE,158,1.1,3.6,18,20.68,,---,99.99,VWS V14.00,2013-08-21 18:51:00,
2013-08-21 14:53:00,89.2,40.2,30.09,South,180,2.2,2.7,18,20.68,,---,99.99,VWS V14.00,2013-08-21 18:53:00,
2013-08-21 14:54:00,89.2,40.2,30.09,ESE,112,2.0,4.3,18,20.68,,---,99.99,VWS V14.00,2013-08-21 18:54:00,
2013-08-21 14:56:00,89.2,40.2,30.09,SSW,202,1.1,4.0,18,20.68,,---,99.99,VWS V14.00,2013-08-21 18:56:00,
2013-08-21 14:57:00,89.2,40.2,30.09,SW,225,3.4,3.4,18,20.68,,---,99.99,VWS V14.00,2013-08-21 18:57:00,
2013-08-21 15:00:00,89.2,40.2,30.09,SSW,202,2.2,3.6,18,20.68,,---,99.99,VWS V14.00,2013-08-21 19:00:00,
2013-08-21 15:02:00,89.2,40.2,30.09,SSE,158,2.0,2.9,18,20.68,,---,99.99,VWS V14.00,2013-08-21 19:02:00,
2013-08-21 15:05:00,89.2,40.2,30.09,SSE,158,2.5,3.1,18,20.68,,---,99.99,VWS V14.00,2013-08-21 19:05:00,
2013-08-21 15:06:00,89.2,40.2,30.09,SSE,158,3.1,3.1,18,20.68,,---,99.99,VWS V14.00,2013-08-21 19:06:00,
2013-08-21 15:07:00,89.2,40.2,30.09,SSW,202,2.0,3.4,18,20.68,,---,99.99,VWS V14.00,2013-08-21 19:07:00,
2013-08-21 15:11:00,89.2,40.2,30.09,SE,135,3.4,3.4,18,20.68,,---,99.99,VWS V14.00,2013-08-21 19:11:00,
2013-08-21 15:12:00,89.2,40.2,30.09,ESE,112,2.5,4.0,18,20.68,,---,99.99,VWS V14.00,2013-08-21 19:12:00,
2013-08-21 15:14:00,89.2,40.2,30.09,South,180,1.6,4.3,18,20.68,,---,99.99,VWS V14.00,2013-08-21 19:14:00,
2013-08-21 15:15:00,89.2,40.2,30.09,SE,135,3.6,4.5,18,20.68,,---,99.99,VWS V14.00,2013-08-21 19:15:00,
2013-08-21 15:17:00,89.2,40.2,30.09,SSW,202,1.6,3.1,18,20.68,,---,99.99,VWS V14.00,2013-08-21 19:17:00,
2013-08-21 15:18:00,89.2,40.2,30.09,South,180,2.5,3.6,18,20.68,,---,99.99,VWS V14.00,2013-08-21 19:18:00,
2013-08-21 15:19:00,89.2,40.2,30.09,South,180,0.0,2.5,18,20.68,,---,99.99,VWS V14.00,2013-08-21 19:19:00,
2013-08-21 15:23:00,89.2,40.2,30.09,SW,225,1.3,2.5,18,20.68,,---,99.99,VWS V14.00,2013-08-21 19:23:00,
2013-08-21 15:24:00,89.2,40.2,30.09,SW,225,0.0,3.1,18,20.68,,---,99.99,VWS V14.00,2013-08-21 19:24:00,
2013-08-21 15:25:00,89.2,40.2,30.09,SSW,202,1.6,2.9,18,20.68,,---,99.99,VWS V14.00,2013-08-21 19:25:00,
2013-08-21 15:29:00,89.2,40.2,30.09,SSW,202,3.4,3.4,18,20.68,,---,99.99,VWS V14.00,2013-08-21 19:29:00,
2013-08-21 15:31:00,89.2,40.2,30.09,South,180,3.1,3.1,18,20.68,,---,99.99,VWS V14.00,2013-08-21 19:31:00,
2013-08-21 15:32:00,89.2,40.2,30.09,SSW,202,0.0,3.1,18,20.68,,---,99.99,VWS V14.00,2013-08-21 19:32:00,
2013-08-21 15:33:00,89.2,40.2,30.09,SW,225,1.3,3.1,18,20.68,,---,99.99,VWS V14.00,2013-08-21 19:33:00,
2013-08-21 15:34:00,89.2,40.2,30.09,ESE,112,0.0,2.2,18,20.68,,---,99.99,VWS V14.00,2013-08-21 19:34:00,
2013-08-21 15:37:00,89.2,40.2,30.09,ESE,112,2.9,3.1,18,20.68,,---,99.99,VWS V14.00,2013-08-21 19:37:00,
2013-08-21 15:39:00,89.2,40.2,30.09,ESE,112,2.7,2.7,18,20.68,,---,99.99,VWS V14.00,2013-08-21 19:39:00,
2013-08-21 15:40:00,89.2,40.2,30.09,SSW,202,3.8,4.3,18,20.68,,---,99.99,VWS V14.00,2013-08-21 19:40:00,
2013-08-21 15:41:00,89.2,40.2,30.09,South,180,0.0,3.8,18,20.68,,---,99.99,VWS V14.00,2013-08-21 19:41:00,
2013-08-21 15:45:00,89.2,40.2,30.09,SSE,158,2.5,3.1,18,20.68,,---,99.99,VWS V14.00,2013-08-21 19:45:00,
2013-08-21 15:46:00,89.2,40.2,30.09,SSW,202,2.7,2.7,18,20.68,,---,99.99,VWS V14.00,2013-08-21 19:46:00,
2013-08-21 15:48:00,89.2,40.2,30.09,SSE,158,2.5,3.6,18,20.68,,---,99.99,VWS V14.00,2013-08-21 19:48:00,
2013-08-21 15:51:00,89.2,40.2,30.09,SSE,158,2.5,3.4,18,20.68,,---,99.99,VWS V14.00,2013-08-21 19:51:00,
2013-08-21 15:52:00,89.2,40.2,30.09,South,180,1.3,2.5,18,20.68,,---,99.99,VWS V14.00,2013-08-21 19:52:00,
2013-08-21 15:53:00,89.2,40.2,30.09,SW,225,3.4,3.4,18,20.68,,---,99.99,VWS V14.00,2013-08-21 19:53:00,
2013-08-21 15:55:00,89.2,40.2,30.09,SE,135,3.4,3.4,18,20.68,,---,99.99,VWS V14.00,2013-08-21 19:55:00,
2013-08-21 15:58:00,86.0,39.0,30.09,SSW,202,0.0,2.9,19,20.68,,---,99.99,VWS V14.00,2013-08-21 19:58:00,
2013-08-21 15:59:00,86.0,39.0,30.09,SSE,158,0.0,0.0,19,20.68,,---,99.99,VWS V14.00,2013-08-21 19:59:00,
2013-08-21 16:00:00,86.0,39.0,30.09,SSW,202,2.0,2.0,19,20.68,,---,99.99,VWS V14.00,2013-08-21 20:00:00,
2013-08-21 16:02:00,86.0,39.0,30.09,ESE,112,3.6,3.8,19,20.68,,---,99.99,VWS V14.00,2013-08-21 20:02:00,
2013-08-21 16:04:00,86.0,39.0,30.09,SE,135,3.1,4.3,19,20.68,,---,99.99,VWS V14.00,2013-08-21 20:04:00,
2013-08-21 16:05:00,86.0,39.0,30.09,South,180,2.7,3.1,19,20.68,,---,99.99,VWS V14.00,2013-08-21 20:05:00,
2013-08-21 16:07:00,86.0,39.0,30.09,SSE,158,0.0,3.4,19,20.68,,---,99.99,VWS V14.00,2013-08-21 20:07:00,
2013-08-21 16:09:00,86.4,39.3,30.09,South,180,0.9,0.9,19,20.68,,---,99.99,VWS V14.00,2013-08-21 20:09:00,
2013-08-21 16:12:00,86.4,39.3,30.09,SSE,158,1.1,3.6,19,20.68,,---,99.99,VWS V14.00,2013-08-21 20:12:00,
2013-08-21 16:13:00,86.4,39.3,30.09,SE,135,2.5,2.5,19,20.68,,---,99.99,VWS V14.00,2013-08-21 20:13:00,
2013-08-21 16:15:00,86.4,39.3,30.09,SSE,158,2.0,2.0,19,20.68,,---,99.99,VWS V14.00,2013-08-21 20:15:00,
2013-08-21 16:17:00,86.4,39.3,30.09,SSE,158,0.0,2.0,19,20.68,,---,99.99,VWS V14.00,2013-08-21 20:17:00,
2013-08-21 16:19:00,86.4,39.3,30.09,ESE,112,6.0,6.0,19,20.68,,---,99.99,VWS V14.00,2013-08-21 20:19:00,
2013-08-21 16:23:00,86.4,39.3,30.09,South,180,2.7,3.4,19,20.68,,---,99.99,VWS V14.00,2013-08-21 20:23:00,
2013-08-21 16:24:00,86.4,39.3,30.09,SSE,158,0.0,3.1,19,20.68,,---,99.99,VWS V14.00,2013-08-21 20:24:00,
2013-08-21 16:25:00,86.4,39.3,30.09,SSE,158,4.0,4.0,19,20.68,,---,99.99,VWS V14.00,2013-08-21 20:25:00,
2013-08-21 16:26:00,84.7,39.3,30.09,SSE,158,2.9,4.0,20,20.68,,---,99.99,VWS V14.00,2013-08-21 20:26:00,
2013-08-21 16:28:00,84.7,39.3,30.09,SSE,158,3.6,3.6,20,20.68,,---,99.99,VWS V14.00,2013-08-21 20:28:00,
2013-08-21 16:30:00,84.7,39.3,30.09,SSW,202,4.5,4.5,20,20.68,,---,99.99,VWS V14.00,2013-08-21 20:30:00,
2013-08-21 16:32:00,84.7,39.3,30.09,South,180,0.0,1.3,20,20.68,,---,99.99,VWS V14.00,2013-08-21 20:32:00,
2013-08-21 16:34:00,84.7,39.3,30.09,South,180,2.2,2.2,20,20.68,,---,99.99,VWS V14.00,2013-08-21 20:34:00,
2013-08-21 16:36:00,84.7,39.3,30.09,South,180,1.3,1.3,20,20.68,,---,99.99,VWS V14.00,2013-08-21 20:36:00,
2013-08-21 16:38:00,84.7,39.3,30.09,SSE,158,4.7,5.4,20,20.68,,---,99.99,VWS V14.00,2013-08-21 20:38:00,
2013-08-21 16:41:00,84.7,39.3,30.09,SE,135,4.0,5.6,20,20.68,,---,99.99,VWS V14.00,2013-08-21 20:41:00,
2013-08-21 16:43:00,84.7,39.3,30.09,ESE,112,5.6,5.6,20,20.68,,---,99.99,VWS V14.00,2013-08-21 20:43:00,
2013-08-21 16:44:00,84.7,39.3,30.09,SSE,158,2.5,5.6,20,20.68,,---,99.99,VWS V14.00,2013-08-21 20:44:00,
2013-08-21 16:45:00,84.7,39.3,30.09,SSE,158,3.1,4.0,20,20.68,,---,99.99,VWS V14.00,2013-08-21 20:45:00,
2013-08-21 16:47:00,84.7,39.3,30.06,SSE,158,3.4,3.4,20,20.68,,---,99.99,VWS V14.00,2013-08-21 20:47:00,
2013-08-21 16:51:00,84.7,39.3,30.06,SE,135,1.3,2.2,20,20.68,,---,99.99,VWS V14.00,2013-08-21 20:51:00,
2013-08-21 16:52:00,86.2,40.5,30.06,ESE,112,6.3,6.3,20,20.68,,---,99.99,VWS V14.00,2013-08-21 20:52:00,
2013-08-21 16:53:00,86.2,40.5,30.06,SE,135,0.0,6.3,20,20.68,,---,99.99,VWS V14.00,2013-08-21 20:53:00,
2013-08-21 16:55:00,86.2,40.5,30.06,ESE,112,5.6,5.6,20,20.68,,---,99.99,VWS V14.00,2013-08-21 20:55:00,
2013-08-21 16:56:00,86.2,40.5,30.06,SSE,158,2.9,5.6,20,20.68,,---,99.99,VWS V14.00,2013-08-21 20:56:00,
2013-08-21 16:58:00,86.2,40.5,30.06,SSE,158,0.9,0.9,20,20.68,,---,99.99,VWS V14.00,2013-08-21 20:58:00,
2013-08-21 16:59:00,86.2,40.5,30.06,East,90,2.7,2.7,20,20.68,,---,99.99,VWS V14.00,2013-08-21 20:59:00,
2013-08-21 17:01:00,86.2,40.5,30.06,ESE,112,1.6,3.4,20,20.68,,---,99.99,VWS V14.00,2013-08-21 21:01:00,
2013-08-21 17:03:00,86.2,40.5,30.06,ESE,112,2.5,2.9,20,20.68,,---,99.99,VWS V14.00,2013-08-21 21:03:00,
2013-08-21 17:04:00,86.2,40.5,30.06,ESE,112,0.0,2.5,20,20.68,,---,99.99,VWS V14.00,2013-08-21 21:04:00,
2013-08-21 17:07:00,86.2,40.5,30.06,SSE,158,0.0,0.0,20,20.68,,---,99.99,VWS V14.00,2013-08-21 21:07:00,
2013-08-21 17:08:00,86.2,40.5,30.06,SE,135,0.0,2.2,20,20.68,,---,99.99,VWS V14.00,2013-08-21 21:08:00,
2013-08-21 17:11:00,86.2,40.5,30.06,SE,135,0.0,0.0,20,20.68,,---,99.99,VWS V14.00,2013-08-21 21:11:00,
2013-08-21 17:12:00,86.2,40.5,30.06,SE,135,0.0,0.0,20,20.68,,---,99.99,VWS V14.00,2013-08-21 21:12:00,
2013-08-21 17:14:00,86.2,40.5,30.06,SE,135,0.0,0.0,20,20.68,,---,99.99,VWS V14.00,2013-08-21 21:14:00,
2013-08-21 17:15:00,86.2,40.5,30.06,SE,135,0.0,0.0,20,20.68,,---,99.99,VWS V14.00,2013-08-21 21:15:00,
2013-08-21 17:17:00,86.2,40.5,30.06,ESE,112,0.0,0.0,20,20.68,,---,99.99,VWS V14.00,2013-08-21 21:17:00,
2013-08-21 17:20:00,86.2,40.5,30.06,SSE,158,0.0,0.0,20,20.68,,---,99.99,VWS V14.00,2013-08-21 21:20:00,
2013-08-21 17:21:00,86.2,40.5,30.06,South,180,0.0,0.0,20,20.68,,---,99.99,VWS V14.00,2013-08-21 21:21:00,
2013-08-21 17:25:00,86.2,40.5,30.06,SSE,158,0.0,0.0,20,20.68,,---,99.99,VWS V14.00,2013-08-21 21:25:00,
2013-08-21 17:26:00,86.2,40.5,30.06,SSE,158,0.0,0.0,20,20.68,,---,99.99,VWS V14.00,2013-08-21 21:26:00,
2013-08-21 17:28:00,86.2,40.5,30.06,SE,135,2.7,2.7,20,20.68,,---,99.99,VWS V14.00,2013-08-21 21:28:00,
2013-08-21 17:30:00,86.2,40.5,30.06,SSE,158,0.0,0.0,20,20.68,,---,99.99,VWS V14.00,2013-08-21 21:30:00,
2013-08-21 17:32:00,86.2,40.5,30.06,SE,135,3.6,4.0,20,20.68,,---,99.99,VWS V14.00,2013-08-21 21:32:00,
2013-08-21 17:33:00,86.2,40.5,30.06,SE,135,2.9,3.6,20,20.68,,---,99.99,VWS V14.00,2013-08-21 21:33:00,
2013-08-21 17:35:00,86.2,40.5,30.06,SSE,158,0.0,2.2,20,20.68,,---,99.99,VWS V14.00,2013-08-21 21:35:00,
2013-08-21 17:36:00,86.2,40.5,30.06,SSE,158,0.0,0.0,20,20.68,,---,99.99,VWS V14.00,2013-08-21 21:36:00,
2013-08-21 17:38:00,86.2,40.5,30.06,ESE,112,1.1,1.1,20,20.68,,---,99.99,VWS V14.00,2013-08-21 21:38:00,
2013-08-21 17:40:00,86.2,40.5,30.06,SSE,158,3.4,3.4,20,20.68,,---,99.99,VWS V14.00,2013-08-21 21:40:00,
2013-08-21 17:41:00,86.2,40.5,30.06,South,180,0.0,3.4,20,20.68,,---,99.99,VWS V14.00,2013-08-21 21:41:00,
2013-08-21 17:43:00,86.2,40.5,30.06,SSW,202,0.0,0.0,20,20.68,,---,99.99,VWS V14.00,2013-08-21 21:43:00,
2013-08-21 17:44:00,86.2,40.5,30.06,SSW,202,0.0,0.0,20,20.68,,---,99.99,VWS V14.00,2013-08-21 21:44:00,
2013-08-21 17:46:00,86.2,40.5,30.06,SSE,158,0.0,2.2,20,20.68,,---,99.99,VWS V14.00,2013-08-21 21:46:00,
2013-08-21 17:49:00,86.2,40.5,30.06,SSW,202,0.0,0.0,20,20.68,,---,99.99,VWS V14.00,2013-08-21 21:49:00,
2013-08-21 17:50:00,86.2,40.5,30.06,SSE,158,1.6,1.6,20,20.68,,---,99.99,VWS V14.00,2013-08-21 21:50:00,
2013-08-21 17:51:00,86.2,40.5,30.06,SSE,158,1.3,1.6,20,20.68,,---,99.99,VWS V14.00,2013-08-21 21:51:00,
2013-08-21 17:54:00,86.2,40.5,30.06,SE,135,0.0,1.3,20,20.68,,---,99.99,VWS V14.00,2013-08-21 21:54:00,
2013-08-21 17:55:00,86.2,40.5,30.06,WSW,248,0.0,1.1,20,20.68,,---,99.99,VWS V14.00,2013-08-21 21:55:00,
2013-08-21 17:56:00,86.2,40.5,30.06,SSW,202,0.0,0.0,20,20.68,,---,99.99,VWS V14.00,2013-08-21 21:56:00,
2013-08-21 17:58:00,86.2,40.5,30.06,South,180,1.3,1.3,20,20.68,,---,99.99,VWS V14.00,2013-08-21 21:58:00,
2013-08-21 18:01:00,86.2,40.5,30.06,SSE,158,0.0,2.5,20,20.68,,---,99.99,VWS V14.00,2013-08-21 22:01:00,
2013-08-21 18:02:00,86.2,40.5,30.06,SSW,202,2.7,2.7,20,20.68,,---,99.99,VWS V14.00,2013-08-21 22:02:00,
2013-08-21 18:03:00,86.2,40.5,30.06,SSW,202,0.0,2.7,20,20.68,,---,99.99,VWS V14.00,2013-08-21 22:03:00,
2013-08-21 18:06:00,86.2,40.5,30.06,SSE,158,2.2,3.8,20,20.68,,---,99.99,VWS V14.00,2013-08-21 22:06:00,
2013-08-21 18:07:00,86.2,40.5,30.06,SSW,202,2.9,2.9,20,20.68,,---,99.99,VWS V14.00,2013-08-21 22:07:00,
2013-08-21 18:09:00,86.2,40.5,30.06,SW,225,3.1,3.1,20,20.68,,---,99.99,VWS V14.00,2013-08-21 22:09:00,
2013-08-21 18:10:00,86.2,40.5,30.06,SSE,158,2.5,3.1,20,20.68,,---,99.99,VWS V14.00,2013-08-21 22:10:00,
2013-08-21 18:15:00,86.2,40.5,30.06,South,180,2.2,2.5,20,20.68,,---,99.99,VWS V14.00,2013-08-21 22:15:00,
2013-08-21 18:17:00,86.2,40.5,30.06,South,180,0.9,2.2,20,20.68,,---,99.99,VWS V14.00,2013-08-21 22:17:00,
2013-08-21 18:18:00,86.2,40.5,30.06,SSW,202,3.6,3.6,20,20.68,,---,99.99,VWS V14.00,2013-08-21 22:18:00,
2013-08-21 18:19:00,86.2,40.5,30.06,South,180,1.3,3.6,20,20.68,,---,99.99,VWS V14.00,2013-08-21 22:19:00,
2013-08-21 18:24:00,86.2,40.5,30.06,SSW,202,1.6,2.0,20,20.68,,---,99.99,VWS V14.00,2013-08-21 22:24:00,
2013-08-21 18:25:00,86.2,40.5,30.06,SW,225,1.6,2.5,20,20.68,,---,99.99,VWS V14.00,2013-08-21 22:25:00,
2013-08-21 18:26:00,86.2,40.5,30.06,WSW,248,2.5,2.7,20,20.68,,---,99.99,VWS V14.00,2013-08-21 22:26:00,
2013-08-21 18:28:00,86.2,40.5,30.06,SSE,158,0.0,2.2,20,20.68,,---,99.99,VWS V14.00,2013-08-21 22:28:00,
2013-08-21 18:29:00,86.2,40.5,30.06,SSE,158,0.0,0.0,20,20.68,,---,99.99,VWS V14.00,2013-08-21 22:29:00,
2013-08-21 18:32:00,86.2,40.5,30.06,South,180,1.1,3.4,20,20.68,,---,99.99,VWS V14.00,2013-08-21 22:32:00,
2013-08-21 18:33:00,86.2,40.5,30.06,NW,315,0.0,2.7,20,20.68,,---,99.99,VWS V14.00,2013-08-21 22:33:00,
2013-08-21 18:34:00,86.2,40.5,30.06,SSE,158,2.0,2.0,20,20.68,,---,99.99,VWS V14.00,2013-08-21 22:34:00,
2013-08-21 18:36:00,86.2,40.5,30.06,SSW,202,1.6,3.8,20,20.68,,---,99.99,VWS V14.00,2013-08-21 22:36:00,
2013-08-21 18:39:00,86.2,40.5,30.06,SW,225,1.3,1.3,20,20.68,,---,99.99,VWS V14.00,2013-08-21 22:39:00,
2013-08-21 18:40:00,86.2,40.5,30.06,SW,225,0.0,3.6,20,20.68,,---,99.99,VWS V14.00,2013-08-21 22:40:00,
2013-08-21 18:44:00,86.2,40.5,30.06,SSW,202,0.0,2.9,20,20.68,,---,99.99,VWS V14.00,2013-08-21 22:44:00,
2013-08-21 18:45:00,86.2,40.5,30.06,SSW,202,2.5,3.1,20,20.68,,---,99.99,VWS V14.00,2013-08-21 22:45:00,
2013-08-21 18:47:00,86.2,40.5,30.06,SSW,202,2.5,2.5,20,20.68,,---,99.99,VWS V14.00,2013-08-21 22:47:00,
2013-08-21 18:49:00,86.2,40.5,30.06,SSE,158,2.9,2.9,20,20.68,,---,99.99,VWS V14.00,2013-08-21 22:49:00,
2013-08-21 18:51:00,86.2,40.5,30.06,South,180,2.0,2.0,20,20.68,,---,99.99,VWS V14.00,2013-08-21 22:51:00,
2013-08-21 18:54:00,86.2,40.5,30.06,SSW,202,1.6,3.6,20,20.68,,---,99.99,VWS V14.00,2013-08-21 22:54:00,
2013-08-21 18:55:00,86.2,40.5,30.06,SSW,202,0.0,1.6,20,20.68,,---,99.99,VWS V14.00,2013-08-21 22:55:00,
2013-08-21 18:57:00,86.2,40.5,30.06,SSW,202,0.0,0.9,20,20.68,,---,99.99,VWS V14.00,2013-08-21 22:57:00,
2013-08-21 18:59:00,81.1,44.0,30.06,SSW,202,0.0,1.3,27,20.68,,---,99.99,VWS V14.00,2013-08-21 22:59:00,
2013-08-21 19:01:00,81.1,44.0,30.06,South,180,0.0,0.0,27,20.68,,---,99.99,VWS V14.00,2013-08-21 23:01:00,
2013-08-21 19:02:00,81.1,44.0,30.06,SSW,202,0.0,0.0,27,20.68,,---,99.99,VWS V14.00,2013-08-21 23:02:00,
2013-08-21 19:03:00,81.1,44.0,30.06,SSW,202,0.0,0.0,27,20.68,,---,99.99,VWS V14.00,2013-08-21 23:03:00,
2013-08-21 19:06:00,81.1,44.0,30.06,SSW,202,0.0,2.5,27,20.68,,---,99.99,VWS V14.00,2013-08-21 23:06:00,
2013-08-21 19:07:00,81.1,44.0,30.06,SSW,202,2.5,2.5,27,20.68,,---,99.99,VWS V14.00,2013-08-21 23:07:00,
2013-08-21 19:08:00,81.1,44.0,30.06,SSW,202,0.9,2.9,27,20.68,,---,99.99,VWS V14.00,2013-08-21 23:08:00,
2013-08-21 19:11:00,81.1,44.0,30.06,SSW,202,0.0,2.2,27,20.68,,---,99.99,VWS V14.00,2013-08-21 23:11:00,
2013-08-21 19:12:00,81.1,44.0,30.06,SW,225,0.0,3.1,27,20.68,,---,99.99,VWS V14.00,2013-08-21 23:12:00,
2013-08-21 19:17:00,81.1,44.0,30.06,SW,225,2.7,2.7,27,20.68,,---,99.99,VWS V14.00,2013-08-21 23:17:00,
2013-08-21 19:18:00,81.1,44.0,30.06,SW,225,1.3,2.7,27,20.68,,---,99.99,VWS V14.00,2013-08-21 23:18:00,
2013-08-21 19:20:00,81.1,44.0,30.06,SSE,158,0.0,2.2,27,20.68,,---,99.99,VWS V14.00,2013-08-21 23:20:00,
2013-08-21 19:21:00,81.1,44.0,30.06,SSW,202,0.0,0.0,27,20.68,,---,99.99,VWS V14.00,2013-08-21 23:21:00,
2013-08-21 19:22:00,81.1,44.0,30.06,SSW,202,0.0,0.0,27,20.68,,---,99.99,VWS V14.00,2013-08-21 23:22:00,
2013-08-21 19:25:00,81.1,44.0,30.06,SSW,202,0.0,2.0,27,20.68,,---,99.99,VWS V14.00,2013-08-21 23:25:00,
2013-08-21 19:27:00,81.1,44.0,30.06,SW,225,2.9,2.9,27,20.68,,---,99.99,VWS V14.00,2013-08-21 23:27:00,
2013-08-21 19:28:00,81.1,44.0,30.06,SSW,202,1.3,2.9,27,20.68,,---,99.99,VWS V14.00,2013-08-21 23:28:00,
2013-08-21 19:30:00,81.1,44.0,30.06,SSW,202,0.0,2.5,27,20.68,,---,99.99,VWS V14.00,2013-08-21 23:30:00,
2013-08-21 19:33:00,80.1,45.9,30.06,SSW,202,2.5,3.8,30,20.68,,---,99.99,VWS V14.00,2013-08-21 23:33:00,
2013-08-21 19:35:00,80.1,45.9,30.06,SSW,202,0.9,2.2,30,20.68,,---,99.99,VWS V14.00,2013-08-21 23:35:00,
2013-08-21 19:37:00,80.1,45.9,30.06,SSW,202,0.0,2.9,30,20.68,,---,99.99,VWS V14.00,2013-08-21 23:37:00,
2013-08-21 19:38:00,80.1,45.9,30.06,SSW,202,1.1,2.0,30,20.68,,---,99.99,VWS V14.00,2013-08-21 23:38:00,
2013-08-21 19:41:00,80.1,45.9,30.06,SSW,202,0.0,3.1,30,20.68,,---,99.99,VWS V14.00,2013-08-21 23:41:00,
2013-08-21 19:42:00,80.1,45.9,30.06,SSE,158,2.7,3.1,30,20.68,,---,99.99,VWS V14.00,2013-08-21 23:42:00,
2013-08-21 19:43:00,80.1,45.9,30.06,SSW,202,1.1,3.1,30,20.68,,---,99.99,VWS V14.00,2013-08-21 23:43:00,
2013-08-21 19:45:00,80.1,45.9,30.06,South,180,2.7,3.4,30,20.68,,---,99.99,VWS V14.00,2013-08-21 23:45:00,
2013-08-21 19:48:00,80.1,45.9,30.06,SSW,202,0.0,2.0,30,20.68,,---,99.99,VWS V14.00,2013-08-21 23:48:00,
2013-08-21 19:49:00,80.1,45.9,30.06,South,180,3.1,4.0,30,20.68,,---,99.99,VWS V14.00,2013-08-21 23:49:00,
2013-08-21 19:50:00,80.1,45.9,30.06,South,180,0.0,3.1,30,20.68,,---,99.99,VWS V14.00,2013-08-21 23:50:00,
2013-08-21 19:51:00,80.1,45.9,30.06,SSW,202,0.0,0.0,30,20.68,,---,99.99,VWS V14.00,2013-08-21 23:51:00,
2013-08-21 19:53:00,80.1,45.9,30.06,SSW,202,1.6,1.6,30,20.68,,---,99.99,VWS V14.00,2013-08-21 23:53:00,
2013-08-21 19:55:00,80.1,45.9,30.06,SSW,202,2.2,2.7,30,20.68,,---,99.99,VWS V14.00,2013-08-21 23:55:00,
2013-08-21 19:56:00,80.1,45.9,30.06,SSW,202,0.0,2.2,30,20.68,,---,99.99,VWS V14.00,2013-08-21 23:56:00,
2013-08-21 19:58:00,79.3,45.2,30.06,SW,225,1.6,1.6,30,20.68,,---,99.99,VWS V14.00,2013-08-21 23:58:00,
2013-08-21 20:00:00,79.3,45.2,30.06,SSW,202,2.0,2.0,30,20.68,,---,99.99,VWS V14.00,2013-08-22 00:00:00,
2013-08-21 20:01:00,79.3,45.2,30.06,SSW,202,0.0,2.5,30,20.68,,---,99.99,VWS V14.00,2013-08-22 00:01:00,
2013-08-21 20:04:00,79.3,45.2,30.06,WSW,248,2.2,2.2,30,20.68,,---,99.99,VWS V14.00,2013-08-22 00:04:00,
2013-08-21 20:05:00,79.3,45.2,30.06,SW,225,2.9,3.1,30,20.68,,---,99.99,VWS V14.00,2013-08-22 00:05:00,
2013-08-21 20:06:00,79.3,45.2,30.06,SW,225,0.0,2.9,30,20.68,,---,99.99,VWS V14.00,2013-08-22 00:06:00,
2013-08-21 20:07:00,79.3,45.2,30.06,SSW,202,0.0,2.0,30,20.68,,---,99.99,VWS V14.00,2013-08-22 00:07:00,
2013-08-21 20:10:00,79.3,45.2,30.06,SSW,202,2.2,2.2,30,20.68,,---,99.99,VWS V14.00,2013-08-22 00:10:00,
2013-08-21 20:11:00,79.3,45.2,30.06,SW,225,0.0,2.2,30,20.68,,---,99.99,VWS V14.00,2013-08-22 00:11:00,
2013-08-21 20:12:00,79.3,45.2,30.06,SW,225,0.0,1.3,30,20.68,,---,99.99,VWS V14.00,2013-08-22 00:12:00,
2013-08-21 20:13:00,79.3,45.2,30.06,WSW,248,2.5,2.5,30,20.68,,---,99.99,VWS V14.00,2013-08-22 00:13:00,
2013-08-21 20:15:00,79.3,45.2,30.06,SSW,202,1.6,1.6,30,20.68,,---,99.99,VWS V14.00,2013-08-22 00:15:00,
2013-08-21 20:17:00,79.3,45.2,30.06,ESE,112,0.0,1.3,30,20.68,,---,99.99,VWS V14.00,2013-08-22 00:17:00,
2013-08-21 20:18:00,79.3,45.2,30.06,SW,225,2.7,3.6,30,20.68,,---,99.99,VWS V14.00,2013-08-22 00:18:00,
2013-08-21 20:20:00,79.3,45.2,30.06,SW,225,2.2,4.0,30,20.68,,---,99.99,VWS V14.00,2013-08-22 00:20:00,
2013-08-21 20:21:00,79.3,45.2,30.06,SW,225,2.5,3.4,30,20.68,,---,99.99,VWS V14.00,2013-08-22 00:21:00,
2013-08-21 20:24:00,79.3,45.2,30.06,SSW,202,1.1,2.5,30,20.68,,---,99.99,VWS V14.00,2013-08-22 00:24:00,
2013-08-21 20:26:00,79.3,45.2,30.06,SW,225,3.6,3.6,30,20.68,,---,99.99,VWS V14.00,2013-08-22 00:26:00,
2013-08-21 20:27:00,79.3,45.2,30.06,SSW,202,2.7,3.6,30,20.68,,---,99.99,VWS V14.00,2013-08-22 00:27:00,
2013-08-21 20:30:00,79.3,45.2,30.06,WSW,248,0.0,2.2,30,20.68,,---,99.99,VWS V14.00,2013-08-22 00:30:00,
2013-08-21 20:31:00,79.3,45.2,30.06,SW,225,0.0,2.0,30,20.68,,---,99.99,VWS V14.00,2013-08-22 00:31:00,
2013-08-21 20:32:00,79.3,45.2,30.06,WSW,248,2.7,3.4,30,20.68,,---,99.99,VWS V14.00,2013-08-22 00:32:00,
2013-08-21 20:34:00,79.3,45.2,30.06,SSW,202,2.0,3.4,30,20.68,,---,99.99,VWS V14.00,2013-08-22 00:34:00,
2013-08-21 20:35:00,79.3,45.2,30.06,SW,225,2.7,2.7,30,20.68,,---,99.99,VWS V14.00,2013-08-22 00:35:00,
2013-08-21 20:40:00,79.3,45.2,30.06,SW,225,3.6,3.6,30,20.68,,---,99.99,VWS V14.00,2013-08-22 00:40:00,
2013-08-21 20:41:00,79.3,45.2,30.06,SW,225,2.9,4.0,30,20.68,,---,99.99,VWS V14.00,2013-08-22 00:41:00,
2013-08-21 20:42:00,79.3,45.2,30.06,SW,225,2.0,3.1,30,20.68,,---,99.99,VWS V14.00,2013-08-22 00:42:00,
2013-08-21 20:45:00,78.4,40.8,30.06,WSW,248,2.9,3.8,26,20.68,,---,99.99,VWS V14.00,2013-08-22 00:45:00,
2013-08-21 20:47:00,78.4,40.8,30.06,SW,225,0.0,0.0,26,20.68,,---,99.99,VWS V14.00,2013-08-22 00:47:00,
2013-08-21 20:49:00,78.4,40.8,30.06,SSW,202,2.7,2.7,26,20.68,,---,99.99,VWS V14.00,2013-08-22 00:49:00,
2013-08-21 20:50:00,78.4,40.8,30.06,SSW,202,4.7,4.7,26,20.68,,---,99.99,VWS V14.00,2013-08-22 00:50:00,
2013-08-21 20:51:00,78.4,40.8,30.06,SSW,202,3.8,4.7,26,20.68,,---,99.99,VWS V14.00,2013-08-22 00:51:00,
2013-08-21 20:52:00,78.4,40.8,30.06,SW,225,0.0,3.8,26,20.68,,---,99.99,VWS V14.00,2013-08-22 00:52:00,
2013-08-21 20:53:00,78.3,40.6,30.06,SSW,202,2.0,2.0,26,20.68,,---,99.99,VWS V14.00,2013-08-22 00:53:00,
2013-08-21 20:56:00,78.3,40.6,30.06,WSW,248,2.9,2.9,26,20.68,,---,99.99,VWS V14.00,2013-08-22 00:56:00,
2013-08-21 20:57:00,78.3,40.6,30.06,WSW,248,1.1,3.4,26,20.68,,---,99.99,VWS V14.00,2013-08-22 00:57:00,
2013-08-21 21:01:00,78.3,40.6,30.06,WSW,248,0.0,2.0,26,20.68,,---,99.99,VWS V14.00,2013-08-22 01:01:00,
2013-08-21 21:02:00,78.3,40.6,30.06,SW,225,2.9,2.9,26,20.68,,---,99.99,VWS V14.00,2013-08-22 01:02:00,
2013-08-21 21:03:00,78.3,40.6,30.06,SW,225,0.0,2.9,26,20.68,,---,99.99,VWS V14.00,2013-08-22 01:03:00,
2013-08-21 21:07:00,78.3,40.6,30.06,SW,225,1.6,2.0,26,20.68,,---,99.99,VWS V14.00,2013-08-22 01:07:00,
2013-08-21 21:08:00,78.3,40.6,30.06,SW,225,3.8,3.8,26,20.68,,---,99.99,VWS V14.00,2013-08-22 01:08:00,
2013-08-21 21:09:00,78.3,40.6,30.06,WSW,248,0.0,3.8,26,20.68,,---,99.99,VWS V14.00,2013-08-22 01:09:00,
2013-08-21 21:10:00,78.3,40.6,30.06,WSW,248,0.0,0.0,26,20.68,,---,99.99,VWS V14.00,2013-08-22 01:10:00,
2013-08-21 21:11:00,78.3,40.6,30.06,WSW,248,0.0,2.0,26,20.68,,---,99.99,VWS V14.00,2013-08-22 01:11:00,
2013-08-21 21:13:00,78.3,40.6,30.06,SW,225,2.2,2.9,26,20.68,,---,99.99,VWS V14.00,2013-08-22 01:13:00,
2013-08-21 21:14:00,78.3,40.6,30.06,SW,225,2.5,3.6,26,20.68,,---,99.99,VWS V14.00,2013-08-22 01:14:00,
2013-08-21 21:15:00,78.3,40.6,30.06,SW,225,2.0,2.5,26,20.68,,---,99.99,VWS V14.00,2013-08-22 01:15:00,
2013-08-21 21:18:00,78.3,40.6,30.06,WSW,248,2.5,4.3,26,20.68,,---,99.99,VWS V14.00,2013-08-22 01:18:00,
2013-08-21 21:20:00,78.3,40.6,30.06,SSW,202,0.0,3.8,26,20.68,,---,99.99,VWS V14.00,2013-08-22 01:20:00,
2013-08-21 21:21:00,78.3,40.6,30.06,WSW,248,0.0,1.6,26,20.68,,---,99.99,VWS V14.00,2013-08-22 01:21:00,
2013-08-21 21:23:00,78.3,40.6,30.06,WSW,248,0.0,3.8,26,20.68,,---,99.99,VWS V14.00,2013-08-22 01:23:00,
2013-08-21 21:27:00,78.3,40.6,30.06,WSW,248,3.4,3.4,26,20.68,,---,99.99,VWS V14.00,2013-08-22 01:27:00,
2013-08-21 21:29:00,78.3,40.6,30.06,WSW,248,2.5,3.4,26,20.68,,---,99.99,VWS V14.00,2013-08-22 01:29:00,
2013-08-21 21:31:00,78.3,40.6,30.06,WSW,248,2.0,4.0,26,20.68,,---,99.99,VWS V14.00,2013-08-22 01:31:00,
2013-08-21 21:32:00,78.3,40.6,30.06,West,270,2.5,2.7,26,20.68,,---,99.99,VWS V14.00,2013-08-22 01:32:00,
2013-08-21 21:36:00,78.3,40.6,30.06,WSW,248,0.0,0.0,26,20.68,,---,99.99,VWS V14.00,2013-08-22 01:36:00,
2013-08-21 21:37:00,78.3,40.6,30.06,WSW,248,4.0,4.0,26,20.68,,---,99.99,VWS V14.00,2013-08-22 01:37:00,
2013-08-21 21:38:00,78.3,40.6,30.06,SW,225,2.2,4.0,26,20.68,,---,99.99,VWS V14.00,2013-08-22 01:38:00,
2013-08-21 21:41:00,78.3,40.6,30.06,WSW,248,2.9,3.4,26,20.68,,---,99.99,VWS V14.00,2013-08-22 01:41:00,
2013-08-21 21:46:00,78.3,40.6,30.06,West,270,3.1,3.1,26,20.68,,---,99.99,VWS V14.00,2013-08-22 01:46:00,
2013-08-21 21:47:00,78.3,40.6,30.06,West,270,3.1,3.1,26,20.68,,---,99.99,VWS V14.00,2013-08-22 01:47:00,
2013-08-21 21:49:00,78.3,40.6,30.06,SW,225,2.5,4.0,26,20.68,,---,99.99,VWS V14.00,2013-08-22 01:49:00,
2013-08-21 21:54:00,78.3,40.6,30.06,WSW,248,2.7,2.7,26,20.68,,---,99.99,VWS V14.00,2013-08-22 01:54:00,
2013-08-21 21:55:00,78.3,40.6,30.06,WSW,248,1.1,2.7,26,20.68,,---,99.99,VWS V14.00,2013-08-22 01:55:00,
2013-08-21 21:56:00,78.3,40.6,30.06,WSW,248,3.6,5.8,26,20.68,,---,99.99,VWS V14.00,2013-08-22 01:56:00,
2013-08-21 21:57:00,78.3,40.6,30.06,WSW,248,2.7,3.6,26,20.68,,---,99.99,VWS V14.00,2013-08-22 01:57:00,
2013-08-21 21:58:00,78.3,40.6,30.06,West,270,0.0,2.7,26,20.68,,---,99.99,VWS V14.00,2013-08-22 01:58:00,
2013-08-21 22:02:00,78.3,40.6,30.06,West,270,1.6,1.6,26,20.68,,---,99.99,VWS V14.00,2013-08-22 02:02:00,
2013-08-21 22:03:00,78.3,40.6,30.06,WSW,248,3.1,3.1,26,20.68,,---,99.99,VWS V14.00,2013-08-22 02:03:00,
2013-08-21 22:04:00,78.3,40.6,30.06,WSW,248,2.9,3.1,26,20.68,,---,99.99,VWS V14.00,2013-08-22 02:04:00,
2013-08-21 22:06:00,78.3,40.6,30.06,WSW,248,0.0,0.0,26,20.68,,---,99.99,VWS V14.00,2013-08-22 02:06:00,
2013-08-21 22:08:00,78.3,40.6,30.06,SSW,202,2.0,2.9,26,20.68,,---,99.99,VWS V14.00,2013-08-22 02:08:00,
2013-08-21 22:11:00,78.3,40.6,30.06,West,270,0.0,2.7,26,20.68,,---,99.99,VWS V14.00,2013-08-22 02:11:00,
2013-08-21 22:12:00,78.3,40.6,30.06,WSW,248,3.4,4.9,26,20.68,,---,99.99,VWS V14.00,2013-08-22 02:12:00,
2013-08-21 22:15:00,78.3,40.6,30.06,WSW,248,2.0,2.0,26,20.68,,---,99.99,VWS V14.00,2013-08-22 02:15:00,
2013-08-21 22:16:00,78.3,40.6,30.06,WSW,248,0.0,2.0,26,20.68,,---,99.99,VWS V14.00,2013-08-22 02:16:00,
2013-08-21 22:17:00,78.3,40.6,30.06,SSW,202,3.1,3.1,26,20.68,,---,99.99,VWS V14.00,2013-08-22 02:17:00,
2013-08-21 22:20:00,78.3,40.6,30.06,WSW,248,2.7,2.7,26,20.68,,---,99.99,VWS V14.00,2013-08-22 02:20:00,
2013-08-21 22:23:00,78.3,40.6,30.06,West,270,1.6,1.6,26,20.68,,---,99.99,VWS V14.00,2013-08-22 02:23:00,
2013-08-21 22:24:00,78.3,40.6,30.06,SW,225,2.7,2.7,26,20.68,,---,99.99,VWS V14.00,2013-08-22 02:24:00,
2013-08-21 22:26:00,78.3,40.6,30.06,West,270,3.4,5.6,26,20.68,,---,99.99,VWS V14.00,2013-08-22 02:26:00,
2013-08-21 22:27:00,78.3,40.6,30.06,SSW,202,1.6,3.4,26,20.68,,---,99.99,VWS V14.00,2013-08-22 02:27:00,
2013-08-21 22:30:00,78.3,40.6,30.06,SW,225,2.7,3.1,26,20.68,,---,99.99,VWS V14.00,2013-08-22 02:30:00,
2013-08-21 22:31:00,78.3,40.6,30.06,WSW,248,2.9,2.9,26,20.68,,---,99.99,VWS V14.00,2013-08-22 02:31:00,
2013-08-21 22:34:00,78.3,40.6,30.06,West,270,1.1,3.6,26,20.68,,---,99.99,VWS V14.00,2013-08-22 02:34:00,
2013-08-21 22:35:00,78.3,40.6,30.06,West,270,1.1,1.1,26,20.68,,---,99.99,VWS V14.00,2013-08-22 02:35:00,
2013-08-21 22:38:00,78.3,40.6,30.06,WSW,248,3.1,5.8,26,20.68,,---,99.99,VWS V14.00,2013-08-22 02:38:00,
2013-08-21 22:41:00,78.3,40.6,30.06,West,270,2.0,4.3,26,20.68,,---,99.99,VWS V14.00,2013-08-22 02:41:00,
2013-08-21 22:43:00,78.3,40.6,30.06,WNW,292,2.5,2.9,26,20.68,,---,99.99,VWS V14.00,2013-08-22 02:43:00,
2013-08-21 22:45:00,78.3,40.6,30.06,SW,225,2.7,2.7,26,20.68,,---,99.99,VWS V14.00,2013-08-22 02:45:00,
2013-08-21 22:47:00,78.3,40.6,30.06,West,270,2.0,3.4,26,20.68,,---,99.99,VWS V14.00,2013-08-22 02:47:00,
2013-08-21 22:48:00,78.3,40.6,30.06,SSE,158,2.5,2.7,26,20.68,,---,99.99,VWS V14.00,2013-08-22 02:48:00,
2013-08-21 22:51:00,78.3,40.6,30.06,WSW,248,1.3,1.3,26,20.68,,---,99.99,VWS V14.00,2013-08-22 02:51:00,
2013-08-21 22:52:00,78.3,40.6,30.06,West,270,2.5,2.5,26,20.68,,---,99.99,VWS V14.00,2013-08-22 02:52:00,
2013-08-21 22:54:00,78.3,40.6,30.06,WSW,248,0.0,1.3,26,20.68,,---,99.99,VWS V14.00,2013-08-22 02:54:00,
2013-08-21 22:55:00,78.3,40.6,30.06,SW,225,0.0,0.0,26,20.68,,---,99.99,VWS V14.00,2013-08-22 02:55:00,
2013-08-21 22:57:00,78.3,40.6,30.06,WSW,248,1.3,3.1,26,20.68,,---,99.99,VWS V14.00,2013-08-22 02:57:00,
2013-08-21 22:58:00,78.3,40.6,30.06,WSW,248,0.0,2.7,26,20.68,,---,99.99,VWS V14.00,2013-08-22 02:58:00,
2013-08-21 23:01:00,78.3,40.6,30.06,WSW,248,0.9,4.0,26,20.68,,---,99.99,VWS V14.00,2013-08-22 03:01:00,
2013-08-21 23:02:00,78.3,40.6,30.06,WSW,248,0.9,0.9,26,20.68,,---,99.99,VWS V14.00,2013-08-22 03:02:00,
2013-08-21 23:06:00,78.3,40.6,30.06,WSW,248,2.0,4.3,26,20.68,,---,99.99,VWS V14.00,2013-08-22 03:06:00,
2013-08-21 23:07:00,78.3,40.6,30.06,SSW,202,0.0,2.0,26,20.68,,---,99.99,VWS V14.00,2013-08-22 03:07:00,
2013-08-21 23:08:00,78.3,40.6,30.06,SW,225,2.0,4.0,26,20.68,,---,99.99,VWS V14.00,2013-08-22 03:08:00,
2013-08-21 23:09:00,78.3,40.6,30.06,WSW,248,2.9,2.9,26,20.68,,---,99.99,VWS V14.00,2013-08-22 03:09:00,
2013-08-21 23:11:00,78.3,40.6,30.06,SSW,202,2.2,3.4,26,20.68,,---,99.99,VWS V14.00,2013-08-22 03:11:00,
2013-08-21 23:14:00,78.3,40.6,30.06,WSW,248,2.9,3.6,26,20.68,,---,99.99,VWS V14.00,2013-08-22 03:14:00,
2013-08-21 23:16:00,78.3,40.6,30.06,WSW,248,3.6,3.6,26,20.68,,---,99.99,VWS V14.00,2013-08-22 03:16:00,
2013-08-21 23:17:00,78.3,40.6,30.06,WSW,248,3.6,3.6,26,20.68,,---,99.99,VWS V14.00,2013-08-22 03:17:00,
2013-08-21 23:20:00,78.3,40.6,30.06,NW,315,2.5,2.9,26,20.68,,---,99.99,VWS V14.00,2013-08-22 03:20:00,
2013-08-21 23:21:00,78.3,40.6,30.06,NW,315,2.5,2.5,26,20.68,,---,99.99,VWS V14.00,2013-08-22 03:21:00,
2013-08-21 23:23:00,78.3,40.6,30.06,SW,225,1.6,3.1,26,20.68,,---,99.99,VWS V14.00,2013-08-22 03:23:00,
2013-08-21 23:25:00,78.3,40.6,30.06,West,270,3.4,3.6,26,20.68,,---,99.99,VWS V14.00,2013-08-22 03:25:00,
2013-08-21 23:27:00,78.3,40.6,30.06,WNW,292,2.9,2.9,26,20.68,,---,99.99,VWS V14.00,2013-08-22 03:27:00,
2013-08-21 23:29:00,78.3,40.6,30.06,WSW,248,2.2,2.2,26,20.68,,---,99.99,VWS V14.00,2013-08-22 03:29:00,
2013-08-21 23:30:00,78.3,40.6,30.06,WSW,248,0.0,2.2,26,20.68,,---,99.99,VWS V14.00,2013-08-22 03:30:00,
2013-08-21 23:31:00,78.3,40.6,30.06,West,270,4.0,4.0,26,20.68,,---,99.99,VWS V14.00,2013-08-22 03:31:00,
2013-08-21 23:32:00,78.3,40.6,30.06,WSW,248,2.7,4.0,26,20.68,,---,99.99,VWS V14.00,2013-08-22 03:32:00,
2013-08-21 23:37:00,78.3,40.6,30.06,WSW,248,3.1,3.1,26,20.68,,---,99.99,VWS V14.00,2013-08-22 03:37:00,
2013-08-21 23:38:00,78.3,40.6,30.06,WNW,292,1.6,3.1,26,20.68,,---,99.99,VWS V14.00,2013-08-22 03:38:00,
2013-08-21 23:41:00,78.3,40.6,30.06,West,270,0.9,2.5,26,20.68,,---,99.99,VWS V14.00,2013-08-22 03:41:00,
2013-08-21 23:43:00,78.3,40.6,30.06,WSW,248,2.7,5.6,26,20.68,,---,99.99,VWS V14.00,2013-08-22 03:43:00,
2013-08-21 23:44:00,78.3,40.6,30.06,West,270,2.2,2.7,26,20.68,,---,99.99,VWS V14.00,2013-08-22 03:44:00,
2013-08-21 23:45:00,78.3,40.6,30.06,SW,225,2.7,2.7,26,20.68,,---,99.99,VWS V14.00,2013-08-22 03:45:00,
2013-08-21 23:47:00,78.3,40.6,30.06,West,270,1.3,2.7,26,20.68,,---,99.99,VWS V14.00,2013-08-22 03:47:00,
2013-08-21 23:49:00,78.3,40.6,30.06,WSW,248,0.0,1.6,26,20.68,,---,99.99,VWS V14.00,2013-08-22 03:49:00,
2013-08-21 23:50:00,78.3,40.6,30.06,SW,225,4.7,4.7,26,20.68,,---,99.99,VWS V14.00,2013-08-22 03:50:00,
2013-08-21 23:54:00,78.3,40.6,30.06,WSW,248,2.0,4.9,26,20.68,,---,99.99,VWS V14.00,2013-08-22 03:54:00,
2013-08-21 23:55:00,78.3,40.6,30.06,SSW,202,0.0,2.0,26,20.68,,---,99.99,VWS V14.00,2013-08-22 03:55:00,
2013-08-21 23:57:00,78.3,40.6,30.06,SSW,202,2.5,2.5,26,20.68,,---,99.99,VWS V14.00,2013-08-22 03:57:00,
2013-08-21 23:59:00,78.3,40.6,30.06,WSW,248,2.9,2.9,26,20.68,,---,0.00,VWS V14.00,2013-08-22 03:59:00,